Wetterdaten: Montag, 22.04.2019
Datum Zeit Temp. Aussen Temp. o. S. +5cm Feuchte Auss Luftdruck Regen Sonnenschein Regendauer Solar Windben Empfang
22.04.2019 00:00 13,7 C 11,7 C 10,0 C 62 % 1012,2 hPa 0,0 l/m 0 min 0 min 0 W/m 0,0 km/h (0 Bft) 100,00 %
22.04.2019 00:02 13,6 C 11,7 C 10,0 C 62 % 1012,2 hPa 0,0 l/m 0 min 0 min 0 W/m 0,0 km/h (0 Bft) 100,00 %
22.04.2019 00:04 13,6 C 11,1 C 10,0 C 62 % 1012,2 hPa 0,0 l/m 0 min 0 min 0 W/m 0,0 km/h (0 Bft) 100,00 %
22.04.2019 00:07 13,5 C 11,1 C 10,0 C 63 % 1012,2 hPa 0,0 l/m 0 min 0 min 0 W/m 0,0 km/h (0 Bft) 100,00 %
22.04.2019 00:08 13,4 C 11,1 C 10,0 C 63 % 1012,2 hPa 0,0 l/m 0 min 0 min 0 W/m 0,0 km/h (0 Bft) 100,00 %
22.04.2019 00:10 13,4 C 11,1 C 10,0 C 63 % 1012,1 hPa 0,0 l/m 0 min 0 min 0 W/m 0,0 km/h (0 Bft) 100,00 %
22.04.2019 00:12 13,4 C 11,1 C 10,0 C 63 % 1012,1 hPa 0,0 l/m 0 min 0 min 0 W/m 0,0 km/h (0 Bft) 97,87 %
22.04.2019 00:14 13,3 C 11,1 C 10,0 C 63 % 1012,1 hPa 0,0 l/m 0 min 0 min 0 W/m 0,0 km/h (0 Bft) 95,74 %
22.04.2019 00:16 13,3 C 10,6 C 10,0 C 63 % 1012,1 hPa 0,0 l/m 0 min 0 min 0 W/m 0,0 km/h (0 Bft) 100,00 %
22.04.2019 00:18 13,2 C 10,6 C 10,0 C 64 % 1012,2 hPa 0,0 l/m 0 min 0 min 0 W/m 0,0 km/h (0 Bft) 100,00 %
22.04.2019 00:20 13,2 C 10,6 C 10,0 C 64 % 1012,2 hPa 0,0 l/m 0 min 0 min 0 W/m 0,0 km/h (0 Bft) 97,87 %
22.04.2019 00:22 13,1 C 10,6 C 10,0 C 64 % 1012,1 hPa 0,0 l/m 0 min 0 min 0 W/m 0,0 km/h (0 Bft) 97,92 %
22.04.2019 00:24 13,1 C 10,6 C 10,0 C 64 % 1012,1 hPa 0,0 l/m 0 min 0 min 0 W/m 0,0 km/h (0 Bft) 97,87 %
22.04.2019 00:26 13,0 C 10,6 C 10,0 C 64 % 1012,1 hPa 0,0 l/m 0 min 0 min 0 W/m 0,0 km/h (0 Bft) 97,87 %
22.04.2019 00:28 12,9 C 10,6 C 9,4 C 64 % 1012,1 hPa 0,0 l/m 0 min 0 min 0 W/m 0,0 km/h (0 Bft) 97,87 %
22.04.2019 00:30 12,9 C 10,6 C 9,4 C 64 % 1012,1 hPa 0,0 l/m 0 min 0 min 0 W/m 0,0 km/h (0 Bft) 97,87 %
22.04.2019 00:32 12,8 C 10,6 C 9,4 C 64 % 1012,1 hPa 0,0 l/m 0 min 0 min 0 W/m 0,0 km/h (0 Bft) 97,83 %
22.04.2019 00:34 12,8 C 10,6 C 9,4 C 64 % 1012,1 hPa 0,0 l/m 0 min 0 min 0 W/m 0,0 km/h (0 Bft) 97,87 %
22.04.2019 00:36 12,8 C 10,6 C 9,4 C 65 % 1012,1 hPa 0,0 l/m 0 min 0 min 0 W/m 0,0 km/h (0 Bft) 96,61 %
22.04.2019 00:38 12,7 C 10,6 C 9,4 C 65 % 1012,1 hPa 0,0 l/m 0 min 0 min 0 W/m 0,0 km/h (0 Bft) 97,14 %
22.04.2019 00:40 12,7 C 10,6 C 9,4 C 65 % 1012,1 hPa 0,0 l/m 0 min 0 min 0 W/m 0,0 km/h (0 Bft) 95,74 %
22.04.2019 00:42 12,6 C 11,1 C 9,4 C 65 % 1012,1 hPa 0,0 l/m 0 min 0 min 0 W/m 0,0 km/h (0 Bft) 97,87 %
22.04.2019 00:44 12,6 C 11,1 C 9,4 C 65 % 1012,1 hPa 0,0 l/m 0 min 0 min 0 W/m 0,0 km/h (0 Bft) 95,65 %
22.04.2019 00:46 12,5 C 11,1 C 9,4 C 65 % 1012,1 hPa 0,0 l/m 0 min 0 min 0 W/m 0,0 km/h (0 Bft) 97,87 %
22.04.2019 00:48 12,4 C 11,1 C 9,4 C 65 % 1012,0 hPa 0,0 l/m 0 min 0 min 0 W/m 0,0 km/h (0 Bft) 95,74 %
22.04.2019 00:50 12,4 C 11,1 C 9,4 C 65 % 1012,0 hPa 0,0 l/m 0 min 0 min 0 W/m 0,0 km/h (0 Bft) 95,74 %
22.04.2019 00:52 12,4 C 11,1 C 9,4 C 65 % 1012,0 hPa 0,0 l/m 0 min 0 min 0 W/m 0,0 km/h (0 Bft) 95,74 %
22.04.2019 00:54 12,4 C 11,1 C 9,4 C 66 % 1012,0 hPa 0,0 l/m 0 min 0 min 0 W/m 0,0 km/h (0 Bft) 95,65 %
22.04.2019 00:56 12,3 C 11,1 C 9,4 C 66 % 1012,0 hPa 0,0 l/m 0 min 0 min 0 W/m 0,0 km/h (0 Bft) 95,74 %
22.04.2019 00:58 12,3 C 11,1 C 9,4 C 66 % 1012,0 hPa 0,0 l/m 0 min 0 min 0 W/m 0,0 km/h (0 Bft) 97,87 %
22.04.2019 01:00 12,2 C 11,1 C 9,4 C 66 % 1012,0 hPa 0,0 l/m 0 min 0 min 0 W/m 0,0 km/h (0 Bft) 93,62 %
22.04.2019 01:02 12,2 C 11,1 C 9,4 C 66 % 1012,0 hPa 0,0 l/m 0 min 0 min 0 W/m 0,0 km/h (0 Bft) 95,74 %
22.04.2019 01:04 12,2 C 11,1 C 9,4 C 66 % 1012,1 hPa 0,0 l/m 0 min 0 min 0 W/m 0,0 km/h (0 Bft) 95,74 %
22.04.2019 01:06 12,2 C 11,1 C 9,4 C 66 % 1012,1 hPa 0,0 l/m 0 min 0 min 0 W/m 0,0 km/h (0 Bft) 96,55 %
22.04.2019 01:08 12,2 C 11,1 C 9,4 C 66 % 1012,1 hPa 0,0 l/m 0 min 0 min 0 W/m 3,2 km/h (1 Bft) 94,29 %
22.04.2019 01:10 12,1 C 11,1 C 9,4 C 66 % 1012,0 hPa 0,0 l/m 0 min 0 min 0 W/m 3,2 km/h (1 Bft) 95,74 %
22.04.2019 01:12 12,1 C 11,1 C 9,4 C 67 % 1012,0 hPa 0,0 l/m 0 min 0 min 0 W/m 0,0 km/h (0 Bft) 95,74 %
22.04.2019 01:14 12,1 C 10,6 C 9,4 C 67 % 1012,0 hPa 0,0 l/m 0 min 0 min 0 W/m 0,0 km/h (0 Bft) 95,74 %
22.04.2019 01:16 12,1 C 10,6 C 9,4 C 67 % 1012,0 hPa 0,0 l/m 0 min 0 min 0 W/m 0,0 km/h (0 Bft) 93,62 %
22.04.2019 01:18 12,1 C 10,6 C 9,4 C 67 % 1011,9 hPa 0,0 l/m 0 min 0 min 0 W/m 0,0 km/h (0 Bft) 95,65 %
22.04.2019 01:20 12,1 C 10,6 C 9,4 C 67 % 1011,9 hPa 0,0 l/m 0 min 0 min 0 W/m 0,0 km/h (0 Bft) 93,62 %
22.04.2019 01:22 12,0 C 10,6 C 8,9 C 67 % 1012,0 hPa 0,0 l/m 0 min 0 min 0 W/m 0,0 km/h (0 Bft) 95,74 %
22.04.2019 01:24 12,0 C 10,6 C 8,9 C 67 % 1012,0 hPa 0,0 l/m 0 min 0 min 0 W/m 0,0 km/h (0 Bft) 95,74 %
22.04.2019 01:26 12,0 C 10,6 C 8,9 C 67 % 1011,9 hPa 0,0 l/m 0 min 0 min 0 W/m 0,0 km/h (0 Bft) 95,74 %
22.04.2019 01:28 12,0 C 10,0 C 8,9 C 67 % 1011,9 hPa 0,0 l/m 0 min 0 min 0 W/m 3,2 km/h (1 Bft) 95,74 %
22.04.2019 01:30 11,9 C 10,0 C 8,9 C 67 % 1011,9 hPa 0,0 l/m 0 min 0 min 0 W/m 3,2 km/h (1 Bft) 95,65 %
22.04.2019 01:32 11,9 C 10,0 C 8,9 C 67 % 1011,9 hPa 0,0 l/m 0 min 0 min 0 W/m 0,0 km/h (0 Bft) 97,87 %
22.04.2019 01:34 11,9 C 10,0 C 8,9 C 67 % 1011,9 hPa 0,0 l/m 0 min 0 min 0 W/m 0,0 km/h (0 Bft) 97,87 %
22.04.2019 01:36 11,9 C 10,0 C 9,4 C 67 % 1011,9 hPa 0,0 l/m 0 min 0 min 0 W/m 3,2 km/h (1 Bft) 94,92 %
22.04.2019 01:38 11,8 C 10,0 C 8,9 C 68 % 1011,9 hPa 0,0 l/m 0 min 0 min 0 W/m 3,2 km/h (1 Bft) 95,65 %
22.04.2019 01:40 11,8 C 10,0 C 9,4 C 68 % 1011,9 hPa 0,0 l/m 0 min 0 min 0 W/m 3,2 km/h (1 Bft) 100,00 %
22.04.2019 01:42 11,8 C 10,0 C 8,9 C 68 % 1011,8 hPa 0,0 l/m 0 min 0 min 0 W/m 3,2 km/h (1 Bft) 95,65 %
22.04.2019 01:44 11,7 C 10,0 C 8,9 C 68 % 1011,8 hPa 0,0 l/m 0 min 0 min 0 W/m 3,2 km/h (1 Bft) 97,87 %
22.04.2019 01:46 11,7 C 10,6 C 8,9 C 68 % 1011,8 hPa 0,0 l/m 0 min 0 min 0 W/m 3,2 km/h (1 Bft) 95,74 %
22.04.2019 01:48 11,7 C 10,6 C 9,4 C 68 % 1011,8 hPa 0,0 l/m 0 min 0 min 0 W/m 6,4 km/h (2 Bft) 95,74 %
22.04.2019 01:50 11,7 C 11,7 C 9,4 C 69 % 1011,8 hPa 0,0 l/m 0 min 0 min 0 W/m 9,7 km/h (2 Bft) 97,87 %
22.04.2019 01:52 11,7 C 12,8 C 10,0 C 68 % 1011,8 hPa 0,0 l/m 0 min 0 min 0 W/m 12,9 km/h (3 Bft) 95,74 %
22.04.2019 01:54 11,8 C 13,9 C 11,1 C 68 % 1011,7 hPa 0,0 l/m 0 min 0 min 0 W/m 16,1 km/h (3 Bft) 97,83 %
22.04.2019 01:56 11,9 C 14,4 C 12,2 C 67 % 1011,6 hPa 0,0 l/m 0 min 0 min 0 W/m 12,9 km/h (3 Bft) 97,87 %
22.04.2019 01:58 12,1 C 15,0 C 12,8 C 66 % 1011,7 hPa 0,0 l/m 0 min 0 min 0 W/m 16,1 km/h (3 Bft) 95,74 %
22.04.2019 02:00 12,2 C 15,0 C 12,8 C 66 % 1011,7 hPa 0,0 l/m 0 min 0 min 0 W/m 6,4 km/h (2 Bft) 95,74 %
22.04.2019 02:02 12,3 C 15,0 C 12,8 C 65 % 1011,7 hPa 0,0 l/m 0 min 0 min 0 W/m 9,7 km/h (2 Bft) 97,87 %
22.04.2019 02:04 12,5 C 14,4 C 12,8 C 65 % 1011,7 hPa 0,0 l/m 0 min 0 min 0 W/m 6,4 km/h (2 Bft) 97,83 %
22.04.2019 02:06 12,6 C 14,4 C 12,8 C 65 % 1011,6 hPa 0,0 l/m 0 min 0 min 0 W/m 3,2 km/h (1 Bft) 96,61 %
22.04.2019 02:08 12,8 C 14,4 C 12,2 C 64 % 1011,6 hPa 0,0 l/m 0 min 0 min 0 W/m 3,2 km/h (1 Bft) 97,14 %
22.04.2019 02:10 12,9 C 14,4 C 12,2 C 63 % 1011,6 hPa 0,0 l/m 0 min 0 min 0 W/m 3,2 km/h (1 Bft) 97,87 %
22.04.2019 02:12 13,0 C 14,4 C 12,2 C 63 % 1011,5 hPa 0,0 l/m 0 min 0 min 0 W/m 3,2 km/h (1 Bft) 97,87 %
22.04.2019 02:14 13,1 C 14,4 C 11,7 C 63 % 1011,5 hPa 0,0 l/m 0 min 0 min 0 W/m 3,2 km/h (1 Bft) 97,87 %
22.04.2019 02:16 13,2 C 14,4 C 11,7 C 63 % 1011,5 hPa 0,0 l/m 0 min 0 min 0 W/m 3,2 km/h (1 Bft) 97,83 %
22.04.2019 02:18 13,3 C 13,9 C 11,7 C 62 % 1011,5 hPa 0,0 l/m 0 min 0 min 0 W/m 6,4 km/h (2 Bft) 95,74 %
22.04.2019 02:20 13,4 C 13,9 C 11,7 C 62 % 1011,5 hPa 0,0 l/m 0 min 0 min 0 W/m 6,4 km/h (2 Bft) 100,00 %
22.04.2019 02:22 13,5 C 13,9 C 11,7 C 61 % 1011,4 hPa 0,0 l/m 0 min 0 min 0 W/m 6,4 km/h (2 Bft) 97,87 %
22.04.2019 02:24 13,6 C 13,9 C 11,7 C 61 % 1011,4 hPa 0,0 l/m 0 min 0 min 0 W/m 3,2 km/h (1 Bft) 95,74 %
22.04.2019 02:26 13,6 C 13,9 C 11,1 C 61 % 1011,4 hPa 0,0 l/m 0 min 0 min 0 W/m 6,4 km/h (2 Bft) 95,74 %
22.04.2019 02:28 13,7 C 13,9 C 11,1 C 61 % 1011,4 hPa 0,0 l/m 0 min 0 min 0 W/m 0,0 km/h (0 Bft) 97,83 %
22.04.2019 02:30 13,8 C 13,3 C 11,1 C 61 % 1011,5 hPa 0,0 l/m 0 min 0 min 0 W/m 0,0 km/h (0 Bft) 100,00 %
22.04.2019 02:32 13,8 C 13,3 C 10,6 C 61 % 1011,4 hPa 0,0 l/m 0 min 0 min 0 W/m 3,2 km/h (1 Bft) 100,00 %
22.04.2019 02:34 13,8 C 12,8 C 10,6 C 61 % 1011,4 hPa 0,0 l/m 0 min 0 min 0 W/m 0,0 km/h (0 Bft) 97,87 %
22.04.2019 02:36 13,9 C 12,8 C 10,6 C 60 % 1011,4 hPa 0,0 l/m 0 min 0 min 0 W/m 3,2 km/h (1 Bft) 100,00 %
22.04.2019 02:38 13,9 C 12,8 C 10,6 C 60 % 1011,3 hPa 0,0 l/m 0 min 0 min 0 W/m 0,0 km/h (0 Bft) 100,00 %
22.04.2019 02:40 13,9 C 12,2 C 10,0 C 60 % 1011,3 hPa 0,0 l/m 0 min 0 min 0 W/m 0,0 km/h (0 Bft) 100,00 %
22.04.2019 02:42 13,9 C 12,2 C 10,0 C 60 % 1011,3 hPa 0,0 l/m 0 min 0 min 0 W/m 0,0 km/h (0 Bft) 91,49 %
22.04.2019 02:44 13,9 C 11,7 C 10,0 C 61 % 1011,5 hPa 0,0 l/m 0 min 0 min 0 W/m 3,2 km/h (1 Bft) 100,00 %
22.04.2019 02:46 13,9 C 11,7 C 10,0 C 61 % 1011,4 hPa 0,0 l/m 0 min 0 min 0 W/m 0,0 km/h (0 Bft) 100,00 %
22.04.2019 02:48 13,9 C 11,1 C 9,4 C 61 % 1011,4 hPa 0,0 l/m 0 min 0 min 0 W/m 0,0 km/h (0 Bft) 100,00 %
22.04.2019 02:50 13,8 C 11,1 C 9,4 C 61 % 1011,4 hPa 0,0 l/m 0 min 0 min 0 W/m 0,0 km/h (0 Bft) 97,87 %
22.04.2019 02:52 13,8 C 11,1 C 9,4 C 61 % 1011,3 hPa 0,0 l/m 0 min 0 min 0 W/m 0,0 km/h (0 Bft) 97,83 %
22.04.2019 02:54 13,7 C 10,6 C 9,4 C 61 % 1011,3 hPa 0,0 l/m 0 min 0 min 0 W/m 0,0 km/h (0 Bft) 97,87 %
22.04.2019 02:56 13,7 C 10,6 C 9,4 C 62 % 1011,3 hPa 0,0 l/m 0 min 0 min 0 W/m 0,0 km/h (0 Bft) 100,00 %
22.04.2019 02:58 13,6 C 10,6 C 9,4 C 62 % 1011,3 hPa 0,0 l/m 0 min 0 min 0 W/m 0,0 km/h (0 Bft) 95,74 %
22.04.2019 03:00 13,5 C 10,0 C 8,9 C 62 % 1011,3 hPa 0,0 l/m 0 min 0 min 0 W/m 0,0 km/h (0 Bft) 97,87 %
22.04.2019 03:02 13,4 C 10,0 C 8,9 C 63 % 1011,2 hPa 0,0 l/m 0 min 0 min 0 W/m 0,0 km/h (0 Bft) 97,87 %
22.04.2019 03:04 13,3 C 10,0 C 8,9 C 63 % 1011,2 hPa 0,0 l/m 0 min 0 min 0 W/m 0,0 km/h (0 Bft) 95,65 %
22.04.2019 03:06 13,2 C 10,0 C 8,9 C 63 % 1011,2 hPa 0,0 l/m 0 min 0 min 0 W/m 0,0 km/h (0 Bft) 98,31 %
22.04.2019 03:08 13,2 C 10,0 C 8,9 C 63 % 1011,2 hPa 0,0 l/m 0 min 0 min 0 W/m 0,0 km/h (0 Bft) 97,14 %
22.04.2019 03:10 13,1 C 10,0 C 8,9 C 64 % 1011,2 hPa 0,0 l/m 0 min 0 min 0 W/m 0,0 km/h (0 Bft) 97,87 %
22.04.2019 03:12 12,9 C 10,0 C 8,9 C 64 % 1011,2 hPa 0,0 l/m 0 min 0 min 0 W/m 0,0 km/h (0 Bft) 97,87 %
22.04.2019 03:14 12,9 C 9,4 C 8,3 C 64 % 1011,2 hPa 0,0 l/m 0 min 0 min 0 W/m 0,0 km/h (0 Bft) 97,83 %
22.04.2019 03:16 12,8 C 9,4 C 8,3 C 65 % 1011,1 hPa 0,0 l/m 0 min 0 min 0 W/m 0,0 km/h (0 Bft) 97,87 %
22.04.2019 03:18 12,7 C 9,4 C 8,3 C 65 % 1011,1 hPa 0,0 l/m 0 min 0 min 0 W/m 0,0 km/h (0 Bft) 97,87 %
22.04.2019 03:20 12,6 C 9,4 C 8,3 C 65 % 1011,1 hPa 0,0 l/m 0 min 0 min 0 W/m 0,0 km/h (0 Bft) 97,87 %
22.04.2019 03:22 12,5 C 9,4 C 8,3 C 65 % 1011,1 hPa 0,0 l/m 0 min 0 min 0 W/m 0,0 km/h (0 Bft) 97,87 %
22.04.2019 03:24 12,4 C 9,4 C 8,3 C 65 % 1011,0 hPa 0,0 l/m 0 min 0 min 0 W/m 0,0 km/h (0 Bft) 95,74 %
22.04.2019 03:26 12,3 C 9,4 C 8,3 C 66 % 1011,0 hPa 0,0 l/m 0 min 0 min 0 W/m 0,0 km/h (0 Bft) 97,83 %
22.04.2019 03:28 12,2 C 8,9 C 7,8 C 66 % 1011,0 hPa 0,0 l/m 0 min 0 min 0 W/m 0,0 km/h (0 Bft) 100,00 %
22.04.2019 03:30 12,1 C 8,9 C 7,8 C 66 % 1010,9 hPa 0,0 l/m 0 min 0 min 0 W/m 0,0 km/h (0 Bft) 97,87 %
22.04.2019 03:32 12,1 C 8,9 C 7,8 C 66 % 1011,0 hPa 0,0 l/m 0 min 0 min 0 W/m 0,0 km/h (0 Bft) 97,87 %
22.04.2019 03:34 11,9 C 8,9 C 7,8 C 67 % 1010,9 hPa 0,0 l/m 0 min 0 min 0 W/m 0,0 km/h (0 Bft) 100,00 %
22.04.2019 03:36 11,9 C 8,9 C 7,8 C 67 % 1010,8 hPa 0,0 l/m 0 min 0 min 0 W/m 0,0 km/h (0 Bft) 100,00 %
22.04.2019 03:38 11,8 C 8,9 C 7,8 C 67 % 1010,9 hPa 0,0 l/m 0 min 0 min 0 W/m 0,0 km/h (0 Bft) 97,14 %
22.04.2019 03:40 11,7 C 8,9 C 7,8 C 67 % 1010,9 hPa 0,0 l/m 0 min 0 min 0 W/m 0,0 km/h (0 Bft) 100,00 %
22.04.2019 03:42 11,6 C 8,9 C 7,8 C 68 % 1010,9 hPa 0,0 l/m 0 min 0 min 0 W/m 0,0 km/h (0 Bft) 100,00 %
22.04.2019 03:44 11,6 C 8,9 C 7,8 C 68 % 1010,8 hPa 0,0 l/m 0 min 0 min 0 W/m 0,0 km/h (0 Bft) 100,00 %
22.04.2019 03:46 11,5 C 8,3 C 7,8 C 68 % 1010,8 hPa 0,0 l/m 0 min 0 min 0 W/m 0,0 km/h (0 Bft) 100,00 %
22.04.2019 03:48 11,4 C 8,3 C 7,8 C 68 % 1010,8 hPa 0,0 l/m 0 min 0 min 0 W/m 0,0 km/h (0 Bft) 97,87 %
22.04.2019 03:50 11,3 C 8,3 C 7,8 C 68 % 1010,8 hPa 0,0 l/m 0 min 0 min 0 W/m 0,0 km/h (0 Bft) 100,00 %
22.04.2019 03:52 11,2 C 8,3 C 7,8 C 69 % 1010,7 hPa 0,0 l/m 0 min 0 min 0 W/m 0,0 km/h (0 Bft) 100,00 %
22.04.2019 03:54 11,2 C 8,3 C 7,2 C 69 % 1010,7 hPa 0,0 l/m 0 min 0 min 0 W/m 0,0 km/h (0 Bft) 100,00 %
22.04.2019 03:56 11,1 C 8,3 C 7,2 C 69 % 1010,7 hPa 0,0 l/m 0 min 0 min 0 W/m 0,0 km/h (0 Bft) 100,00 %
22.04.2019 03:58 11,0 C 8,3 C 7,2 C 69 % 1010,5 hPa 0,0 l/m 0 min 0 min 0 W/m 0,0 km/h (0 Bft) 100,00 %
22.04.2019 04:00 10,9 C 8,3 C 7,2 C 70 % 1010,6 hPa 0,0 l/m 0 min 0 min 0 W/m 0,0 km/h (0 Bft) 100,00 %
22.04.2019 04:02 10,9 C 8,3 C 7,2 C 70 % 1010,6 hPa 0,0 l/m 0 min 0 min 0 W/m 0,0 km/h (0 Bft) 100,00 %
22.04.2019 04:04 10,8 C 8,3 C 7,2 C 70 % 1010,6 hPa 0,0 l/m 0 min 0 min 0 W/m 0,0 km/h (0 Bft) 100,00 %
22.04.2019 04:06 10,8 C 8,3 C 7,2 C 70 % 1010,5 hPa 0,0 l/m 0 min 0 min 0 W/m 0,0 km/h (0 Bft) 100,00 %
22.04.2019 04:08 10,7 C 8,3 C 7,2 C 70 % 1010,6 hPa 0,0 l/m 0 min 0 min 0 W/m 0,0 km/h (0 Bft) 100,00 %
22.04.2019 04:10 10,7 C 8,3 C 7,2 C 70 % 1010,5 hPa 0,0 l/m 0 min 0 min 0 W/m 0,0 km/h (0 Bft) 97,87 %
22.04.2019 04:12 10,6 C 7,8 C 7,2 C 70 % 1010,5 hPa 0,0 l/m 0 min 0 min 0 W/m 0,0 km/h (0 Bft) 100,00 %
22.04.2019 04:14 10,5 C 7,8 C 7,2 C 70 % 1010,5 hPa 0,0 l/m 0 min 0 min 0 W/m 0,0 km/h (0 Bft) 97,83 %
22.04.2019 04:16 10,4 C 7,8 C 7,2 C 71 % 1010,5 hPa 0,0 l/m 0 min 0 min 0 W/m 0,0 km/h (0 Bft) 100,00 %
22.04.2019 04:18 10,4 C 7,8 C 7,2 C 71 % 1010,5 hPa 0,0 l/m 0 min 0 min 0 W/m 0,0 km/h (0 Bft) 100,00 %
22.04.2019 04:20 10,3 C 8,3 C 7,2 C 71 % 1010,4 hPa 0,0 l/m 0 min 0 min 0 W/m 0,0 km/h (0 Bft) 100,00 %
22.04.2019 04:22 10,3 C 7,8 C 7,2 C 71 % 1010,5 hPa 0,0 l/m 0 min 0 min 0 W/m 0,0 km/h (0 Bft) 100,00 %
22.04.2019 04:24 10,2 C 7,8 C 6,7 C 71 % 1010,4 hPa 0,0 l/m 0 min 0 min 0 W/m 0,0 km/h (0 Bft) 100,00 %
22.04.2019 04:26 10,2 C 7,8 C 6,7 C 71 % 1010,5 hPa 0,0 l/m 0 min 0 min 0 W/m 0,0 km/h (0 Bft) 100,00 %
22.04.2019 04:28 10,1 C 7,8 C 6,7 C 71 % 1010,5 hPa 0,0 l/m 0 min 0 min 0 W/m 0,0 km/h (0 Bft) 100,00 %
22.04.2019 04:30 10,1 C 7,8 C 6,7 C 71 % 1010,4 hPa 0,0 l/m 0 min 0 min 0 W/m 0,0 km/h (0 Bft) 93,62 %
22.04.2019 04:32 10,0 C 7,8 C 6,7 C 71 % 1010,5 hPa 0,0 l/m 0 min 0 min 0 W/m 0,0 km/h (0 Bft) 97,87 %
22.04.2019 04:34 10,0 C 7,8 C 6,7 C 71 % 1010,4 hPa 0,0 l/m 0 min 0 min 0 W/m 0,0 km/h (0 Bft) 93,62 %
22.04.2019 04:36 9,9 C 7,8 C 6,7 C 71 % 1010,3 hPa 0,0 l/m 0 min 0 min 0 W/m 0,0 km/h (0 Bft) 98,28 %
22.04.2019 04:38 9,9 C 7,8 C 6,7 C 71 % 1010,3 hPa 0,0 l/m 0 min 0 min 0 W/m 0,0 km/h (0 Bft) 97,14 %
22.04.2019 04:40 9,8 C 7,8 C 6,7 C 71 % 1010,4 hPa 0,0 l/m 0 min 0 min 0 W/m 0,0 km/h (0 Bft) 95,74 %
22.04.2019 04:42 9,8 C 7,8 C 6,7 C 72 % 1010,3 hPa 0,0 l/m 0 min 0 min 0 W/m 0,0 km/h (0 Bft) 93,62 %
22.04.2019 04:44 9,8 C 7,8 C 6,7 C 72 % 1010,3 hPa 0,0 l/m 0 min 0 min 0 W/m 0,0 km/h (0 Bft) 95,74 %
22.04.2019 04:46 9,7 C 7,2 C 6,7 C 72 % 1010,4 hPa 0,0 l/m 0 min 0 min 0 W/m 0,0 km/h (0 Bft) 93,62 %
22.04.2019 04:48 9,7 C 7,2 C 6,7 C 72 % 1010,3 hPa 0,0 l/m 0 min 0 min 0 W/m 0,0 km/h (0 Bft) 91,30 %
22.04.2019 04:50 9,6 C 7,2 C 6,7 C 72 % 1010,3 hPa 0,0 l/m 0 min 0 min 0 W/m 0,0 km/h (0 Bft) 95,92 %
22.04.2019 04:52 9,6 C 7,2 C 6,7 C 72 % 1010,3 hPa 0,0 l/m 0 min 0 min 0 W/m 0,0 km/h (0 Bft) 93,62 %
22.04.2019 04:54 9,5 C 7,2 C 6,7 C 72 % 1010,2 hPa 0,0 l/m 0 min 0 min 0 W/m 0,0 km/h (0 Bft) 93,62 %
22.04.2019 04:56 9,5 C 7,2 C 6,7 C 72 % 1010,2 hPa 0,0 l/m 0 min 0 min 0 W/m 0,0 km/h (0 Bft) 93,62 %
22.04.2019 04:58 9,4 C 7,2 C 6,7 C 72 % 1010,2 hPa 0,0 l/m 0 min 0 min 0 W/m 0,0 km/h (0 Bft) 93,48 %
22.04.2019 05:00 9,4 C 7,2 C 6,7 C 72 % 1010,2 hPa 0,0 l/m 0 min 0 min 0 W/m 0,0 km/h (0 Bft) 91,49 %
22.04.2019 05:02 9,3 C 6,7 C 6,7 C 73 % 1010,3 hPa 0,0 l/m 0 min 0 min 0 W/m 0,0 km/h (0 Bft) 93,62 %
22.04.2019 05:04 9,3 C 6,7 C 6,7 C 72 % 1010,2 hPa 0,0 l/m 0 min 0 min 0 W/m 0,0 km/h (0 Bft) 93,62 %
22.04.2019 05:05 9,3 C 6,7 C 6,1 C 73 % 1010,2 hPa 0,0 l/m 0 min 0 min 0 W/m 0,0 km/h (0 Bft) 93,86 %
22.04.2019 05:10 9,2 C 6,7 C 6,1 C 73 % 1010,1 hPa 0,0 l/m 0 min 0 min 0 W/m 0,0 km/h (0 Bft) 97,37 %
22.04.2019 05:12 9,2 C 6,7 C 6,1 C 73 % 1010,0 hPa 0,0 l/m 0 min 0 min 0 W/m 0,0 km/h (0 Bft) 91,67 %
22.04.2019 05:14 9,1 C 6,7 C 6,1 C 73 % 1010,0 hPa 0,0 l/m 0 min 0 min 0 W/m 0,0 km/h (0 Bft) 97,83 %
22.04.2019 05:19 9,0 C 6,7 C 6,1 C 74 % 1009,9 hPa 0,0 l/m 0 min 0 min 0 W/m 0,0 km/h (0 Bft) 98,55 %
22.04.2019 05:20 9,0 C 6,7 C 6,1 C 74 % 1009,9 hPa 0,0 l/m 0 min 0 min 0 W/m 0,0 km/h (0 Bft) 91,67 %
22.04.2019 05:22 8,9 C 6,7 C 6,1 C 74 % 1009,9 hPa 0,0 l/m 0 min 0 min 0 W/m 0,0 km/h (0 Bft) 97,87 %
22.04.2019 05:24 8,9 C 6,7 C 6,1 C 74 % 1009,9 hPa 0,0 l/m 0 min 0 min 0 W/m 0,0 km/h (0 Bft) 95,74 %
22.04.2019 05:26 8,8 C 6,1 C 6,1 C 74 % 1009,9 hPa 0,0 l/m 0 min 0 min 0 W/m 0,0 km/h (0 Bft) 93,48 %
22.04.2019 05:28 8,8 C 6,7 C 6,1 C 75 % 1009,8 hPa 0,0 l/m 0 min 0 min 0 W/m 0,0 km/h (0 Bft) 95,74 %
22.04.2019 05:30 8,7 C 6,1 C 6,1 C 75 % 1009,8 hPa 0,0 l/m 0 min 0 min 0 W/m 0,0 km/h (0 Bft) 93,62 %
22.04.2019 05:32 8,7 C 6,7 C 6,1 C 75 % 1009,8 hPa 0,0 l/m 0 min 0 min 0 W/m 0,0 km/h (0 Bft) 95,74 %
22.04.2019 05:34 8,7 C 6,7 C 6,1 C 75 % 1009,8 hPa 0,0 l/m 0 min 0 min 0 W/m 0,0 km/h (0 Bft) 95,74 %
22.04.2019 05:36 8,7 C 6,7 C 6,1 C 75 % 1009,8 hPa 0,0 l/m 0 min 0 min 0 W/m 0,0 km/h (0 Bft) 95,74 %
22.04.2019 05:38 8,6 C 6,7 C 6,1 C 75 % 1009,7 hPa 0,0 l/m 0 min 0 min 0 W/m 0,0 km/h (0 Bft) 95,65 %
22.04.2019 05:40 8,6 C 6,7 C 5,6 C 75 % 1009,7 hPa 0,0 l/m 0 min 0 min 0 W/m 0,0 km/h (0 Bft) 95,74 %
22.04.2019 05:42 8,5 C 6,7 C 5,6 C 76 % 1009,7 hPa 0,0 l/m 0 min 0 min 0 W/m 0,0 km/h (0 Bft) 93,62 %
22.04.2019 05:44 8,5 C 6,7 C 5,6 C 76 % 1009,7 hPa 0,0 l/m 0 min 0 min 0 W/m 0,0 km/h (0 Bft) 97,87 %
22.04.2019 05:46 8,4 C 6,7 C 5,6 C 76 % 1009,7 hPa 0,0 l/m 0 min 0 min 0 W/m 0,0 km/h (0 Bft) 95,74 %
22.04.2019 05:48 8,4 C 6,1 C 5,6 C 76 % 1009,7 hPa 0,0 l/m 0 min 0 min 0 W/m 0,0 km/h (0 Bft) 95,65 %
22.04.2019 05:50 8,3 C 6,1 C 5,6 C 76 % 1009,7 hPa 0,0 l/m 0 min 0 min 0 W/m 0,0 km/h (0 Bft) 95,74 %
22.04.2019 05:52 8,3 C 6,1 C 5,6 C 76 % 1009,6 hPa 0,0 l/m 0 min 0 min 0 W/m 0,0 km/h (0 Bft) 97,87 %
22.04.2019 05:54 8,3 C 6,1 C 5,6 C 76 % 1009,6 hPa 0,0 l/m 0 min 0 min 0 W/m 0,0 km/h (0 Bft) 95,74 %
22.04.2019 05:56 8,2 C 6,1 C 5,6 C 76 % 1009,6 hPa 0,0 l/m 0 min 0 min 0 W/m 0,0 km/h (0 Bft) 95,74 %
22.04.2019 05:58 8,2 C 6,1 C 5,6 C 76 % 1009,6 hPa 0,0 l/m 0 min 0 min 0 W/m 0,0 km/h (0 Bft) 97,87 %
22.04.2019 06:00 8,2 C 6,1 C 5,6 C 77 % 1009,6 hPa 0,0 l/m 0 min 0 min 0 W/m 0,0 km/h (0 Bft) 95,74 %
22.04.2019 06:02 8,1 C 6,1 C 5,6 C 77 % 1009,5 hPa 0,0 l/m 0 min 0 min 0 W/m 0,0 km/h (0 Bft) 95,65 %
22.04.2019 06:04 8,1 C 6,1 C 5,6 C 77 % 1009,5 hPa 0,0 l/m 0 min 0 min 0 W/m 0,0 km/h (0 Bft) 100,00 %
22.04.2019 06:08 8,0 C 6,1 C 5,6 C 77 % 1009,5 hPa 0,0 l/m 0 min 0 min 0 W/m 0,0 km/h (0 Bft) 98,94 %
22.04.2019 06:10 7,9 C 6,1 C 5,6 C 78 % 1009,5 hPa 0,0 l/m 0 min 0 min 0 W/m 0,0 km/h (0 Bft) 95,74 %
22.04.2019 06:12 7,9 C 6,1 C 5,6 C 78 % 1009,5 hPa 0,0 l/m 0 min 0 min 0 W/m 0,0 km/h (0 Bft) 100,00 %
22.04.2019 06:14 7,9 C 6,1 C 5,6 C 78 % 1009,5 hPa 0,0 l/m 0 min 0 min 0 W/m 0,0 km/h (0 Bft) 100,00 %
22.04.2019 06:16 7,8 C 6,1 C 5,6 C 78 % 1009,5 hPa 0,0 l/m 0 min 0 min 0 W/m 0,0 km/h (0 Bft) 100,00 %
22.04.2019 06:18 7,8 C 6,1 C 5,6 C 78 % 1009,4 hPa 0,0 l/m 0 min 0 min 0 W/m 0,0 km/h (0 Bft) 100,00 %
22.04.2019 06:20 7,8 C 6,1 C 5,6 C 79 % 1009,4 hPa 0,0 l/m 0 min 0 min 0 W/m 0,0 km/h (0 Bft) 95,74 %
22.04.2019 06:22 7,7 C 6,1 C 5,6 C 79 % 1009,4 hPa 0,0 l/m 0 min 0 min 0 W/m 0,0 km/h (0 Bft) 97,87 %
22.04.2019 06:24 7,7 C 6,1 C 5,6 C 79 % 1009,4 hPa 0,0 l/m 0 min 0 min 0 W/m 0,0 km/h (0 Bft) 97,83 %
22.04.2019 06:26 7,7 C 6,1 C 5,6 C 79 % 1009,5 hPa 0,0 l/m 0 min 0 min 4 W/m 0,0 km/h (0 Bft) 89,36 %
22.04.2019 06:28 7,7 C 6,1 C 5,6 C 80 % 1009,4 hPa 0,0 l/m 0 min 0 min 5 W/m 0,0 km/h (0 Bft) 97,87 %
22.04.2019 06:30 7,6 C 6,1 C 5,6 C 80 % 1009,4 hPa 0,0 l/m 0 min 0 min 6 W/m 0,0 km/h (0 Bft) 95,74 %
22.04.2019 06:32 7,6 C 6,1 C 5,6 C 80 % 1009,4 hPa 0,0 l/m 0 min 0 min 7 W/m 0,0 km/h (0 Bft) 97,87 %
22.04.2019 06:34 7,6 C 6,1 C 5,6 C 80 % 1009,4 hPa 0,0 l/m 0 min 0 min 8 W/m 0,0 km/h (0 Bft) 97,87 %
22.04.2019 06:36 7,6 C 6,1 C 5,6 C 81 % 1009,4 hPa 0,0 l/m 0 min 0 min 9 W/m 0,0 km/h (0 Bft) 95,65 %
22.04.2019 06:38 7,5 C 6,1 C 5,6 C 81 % 1009,3 hPa 0,0 l/m 0 min 0 min 11 W/m 0,0 km/h (0 Bft) 97,87 %
22.04.2019 06:40 7,5 C 6,1 C 5,6 C 81 % 1009,4 hPa 0,0 l/m 0 min 0 min 11 W/m 0,0 km/h (0 Bft) 97,87 %
22.04.2019 06:42 7,5 C 6,1 C 5,6 C 81 % 1009,4 hPa 0,0 l/m 0 min 0 min 12 W/m 0,0 km/h (0 Bft) 97,87 %
22.04.2019 06:44 7,4 C 6,1 C 5,6 C 81 % 1009,3 hPa 0,0 l/m 0 min 0 min 13 W/m 0,0 km/h (0 Bft) 97,87 %
22.04.2019 06:46 7,4 C 6,1 C 5,6 C 82 % 1009,3 hPa 0,0 l/m 0 min 0 min 14 W/m 0,0 km/h (0 Bft) 100,00 %
22.04.2019 06:48 7,4 C 6,1 C 5,6 C 82 % 1009,4 hPa 0,0 l/m 0 min 0 min 15 W/m 0,0 km/h (0 Bft) 100,00 %
22.04.2019 06:50 7,4 C 6,1 C 5,6 C 82 % 1009,4 hPa 0,0 l/m 0 min 0 min 17 W/m 0,0 km/h (0 Bft) 100,00 %
22.04.2019 06:52 7,4 C 6,1 C 5,6 C 82 % 1009,4 hPa 0,0 l/m 0 min 0 min 18 W/m 0,0 km/h (0 Bft) 100,00 %
22.04.2019 06:54 7,4 C 6,1 C 5,6 C 82 % 1009,3 hPa 0,0 l/m 0 min 0 min 19 W/m 0,0 km/h (0 Bft) 97,87 %
22.04.2019 06:56 7,3 C 6,1 C 5,6 C 83 % 1009,4 hPa 0,0 l/m 0 min 0 min 20 W/m 0,0 km/h (0 Bft) 100,00 %
22.04.2019 06:58 7,3 C 6,7 C 5,6 C 83 % 1009,4 hPa 0,0 l/m 0 min 0 min 21 W/m 0,0 km/h (0 Bft) 100,00 %
22.04.2019 07:00 7,3 C 6,7 C 5,6 C 83 % 1009,4 hPa 0,0 l/m 0 min 0 min 22 W/m 0,0 km/h (0 Bft) 97,87 %
22.04.2019 07:02 7,3 C 6,7 C 5,6 C 83 % 1009,4 hPa 0,0 l/m 0 min 0 min 24 W/m 0,0 km/h (0 Bft) 97,87 %
22.04.2019 07:04 7,3 C 6,7 C 5,6 C 83 % 1009,3 hPa 0,0 l/m 0 min 0 min 25 W/m 0,0 km/h (0 Bft) 100,00 %
22.04.2019 07:06 7,3 C 6,7 C 6,1 C 84 % 1009,4 hPa 0,0 l/m 0 min 0 min 26 W/m 0,0 km/h (0 Bft) 100,00 %
22.04.2019 07:08 7,3 C 6,7 C 6,1 C 84 % 1009,3 hPa 0,0 l/m 0 min 0 min 28 W/m 0,0 km/h (0 Bft) 100,00 %
22.04.2019 07:10 7,3 C 6,7 C 6,1 C 84 % 1009,4 hPa 0,0 l/m 0 min 0 min 29 W/m 0,0 km/h (0 Bft) 100,00 %
22.04.2019 07:12 7,3 C 7,2 C 6,1 C 84 % 1009,4 hPa 0,0 l/m 0 min 0 min 31 W/m 0,0 km/h (0 Bft) 100,00 %
22.04.2019 07:14 7,3 C 7,2 C 6,1 C 84 % 1009,5 hPa 0,0 l/m 0 min 0 min 32 W/m 0,0 km/h (0 Bft) 100,00 %
22.04.2019 07:16 7,3 C 7,2 C 6,1 C 84 % 1009,4 hPa 0,0 l/m 0 min 0 min 34 W/m 0,0 km/h (0 Bft) 100,00 %
22.04.2019 07:18 7,3 C 7,2 C 6,1 C 85 % 1009,4 hPa 0,0 l/m 0 min 0 min 35 W/m 0,0 km/h (0 Bft) 100,00 %
22.04.2019 07:20 7,3 C 7,2 C 6,7 C 85 % 1009,4 hPa 0,0 l/m 0 min 0 min 38 W/m 0,0 km/h (0 Bft) 97,87 %
22.04.2019 07:22 7,3 C 7,8 C 6,7 C 85 % 1009,3 hPa 0,0 l/m 0 min 0 min 40 W/m 0,0 km/h (0 Bft) 97,83 %
22.04.2019 07:24 7,3 C 7,8 C 6,7 C 85 % 1009,4 hPa 0,0 l/m 0 min 0 min 43 W/m 0,0 km/h (0 Bft) 100,00 %
22.04.2019 07:26 7,3 C 7,8 C 6,7 C 86 % 1009,3 hPa 0,0 l/m 0 min 0 min 50 W/m 0,0 km/h (0 Bft) 100,00 %
22.04.2019 07:28 7,3 C 7,8 C 6,7 C 86 % 1009,4 hPa 0,0 l/m 0 min 0 min 53 W/m 0,0 km/h (0 Bft) 100,00 %
22.04.2019 07:30 7,3 C 8,3 C 6,7 C 86 % 1009,3 hPa 0,0 l/m 0 min 0 min 53 W/m 0,0 km/h (0 Bft) 97,87 %
22.04.2019 07:32 7,3 C 8,3 C 6,7 C 86 % 1009,3 hPa 0,0 l/m 0 min 0 min 52 W/m 0,0 km/h (0 Bft) 97,87 %
22.04.2019 07:34 7,4 C 8,3 C 7,2 C 86 % 1009,3 hPa 0,0 l/m 0 min 0 min 50 W/m 0,0 km/h (0 Bft) 97,83 %
22.04.2019 07:36 7,4 C 8,3 C 7,2 C 87 % 1009,3 hPa 0,0 l/m 0 min 0 min 52 W/m 0,0 km/h (0 Bft) 100,00 %
22.04.2019 07:38 7,4 C 8,3 C 7,2 C 87 % 1009,3 hPa 0,0 l/m 0 min 0 min 54 W/m 0,0 km/h (0 Bft) 100,00 %
22.04.2019 07:40 7,4 C 8,9 C 7,2 C 87 % 1009,3 hPa 0,0 l/m 0 min 0 min 55 W/m 0,0 km/h (0 Bft) 100,00 %
22.04.2019 07:42 7,5 C 8,9 C 7,2 C 87 % 1009,3 hPa 0,0 l/m 0 min 0 min 57 W/m 0,0 km/h (0 Bft) 100,00 %
22.04.2019 07:44 7,5 C 8,9 C 7,8 C 88 % 1009,3 hPa 0,0 l/m 0 min 0 min 58 W/m 0,0 km/h (0 Bft) 100,00 %
22.04.2019 07:46 7,6 C 9,4 C 7,8 C 88 % 1009,3 hPa 0,0 l/m 0 min 0 min 60 W/m 0,0 km/h (0 Bft) 95,65 %
22.04.2019 07:48 7,6 C 9,4 C 7,8 C 88 % 1009,3 hPa 0,0 l/m 0 min 0 min 61 W/m 0,0 km/h (0 Bft) 100,00 %
22.04.2019 07:50 7,7 C 9,4 C 7,8 C 88 % 1009,3 hPa 0,0 l/m 0 min 0 min 63 W/m 0,0 km/h (0 Bft) 97,87 %
22.04.2019 07:52 7,7 C 9,4 C 7,8 C 88 % 1009,3 hPa 0,0 l/m 0 min 0 min 65 W/m 0,0 km/h (0 Bft) 95,74 %
22.04.2019 07:54 7,8 C 10,0 C 8,3 C 89 % 1009,2 hPa 0,0 l/m 0 min 0 min 66 W/m 0,0 km/h (0 Bft) 100,00 %
22.04.2019 07:56 7,8 C 10,0 C 8,3 C 89 % 1009,2 hPa 0,0 l/m 0 min 0 min 69 W/m 0,0 km/h (0 Bft) 97,83 %
22.04.2019 07:58 7,9 C 10,0 C 8,3 C 89 % 1009,2 hPa 0,0 l/m 0 min 0 min 70 W/m 0,0 km/h (0 Bft) 97,87 %
22.04.2019 08:00 7,9 C 10,0 C 8,3 C 89 % 1009,2 hPa 0,0 l/m 0 min 0 min 71 W/m 0,0 km/h (0 Bft) 97,87 %
22.04.2019 08:02 8,0 C 10,0 C 8,9 C 89 % 1009,3 hPa 0,0 l/m 0 min 0 min 72 W/m 0,0 km/h (0 Bft) 97,87 %
22.04.2019 08:04 8,1 C 10,6 C 8,9 C 89 % 1009,3 hPa 0,0 l/m 0 min 0 min 72 W/m 0,0 km/h (0 Bft) 97,87 %
22.04.2019 08:06 8,1 C 10,6 C 8,9 C 89 % 1009,3 hPa 0,0 l/m 0 min 0 min 71 W/m 0,0 km/h (0 Bft) 95,74 %
22.04.2019 08:08 8,2 C 10,6 C 8,9 C 89 % 1009,3 hPa 0,0 l/m 0 min 0 min 70 W/m 0,0 km/h (0 Bft) 95,65 %
22.04.2019 08:10 8,2 C 10,6 C 8,9 C 90 % 1009,2 hPa 0,0 l/m 0 min 0 min 69 W/m 0,0 km/h (0 Bft) 93,62 %
22.04.2019 08:12 8,3 C 10,6 C 8,9 C 90 % 1009,2 hPa 0,0 l/m 0 min 0 min 69 W/m 0,0 km/h (0 Bft) 95,74 %
22.04.2019 08:14 8,4 C 11,1 C 8,9 C 90 % 1009,3 hPa 0,0 l/m 0 min 0 min 69 W/m 0,0 km/h (0 Bft) 95,74 %
22.04.2019 08:16 8,5 C 11,1 C 9,4 C 90 % 1009,2 hPa 0,0 l/m 0 min 0 min 70 W/m 0,0 km/h (0 Bft) 93,62 %
22.04.2019 08:18 8,6 C 11,1 C 9,4 C 90 % 1009,3 hPa 0,0 l/m 0 min 0 min 72 W/m 0,0 km/h (0 Bft) 97,87 %
22.04.2019 08:20 8,7 C 11,7 C 9,4 C 90 % 1009,3 hPa 0,0 l/m 0 min 0 min 75 W/m 0,0 km/h (0 Bft) 95,65 %
22.04.2019 08:22 8,7 C 11,7 C 9,4 C 90 % 1009,3 hPa 0,0 l/m 0 min 0 min 77 W/m 0,0 km/h (0 Bft) 95,74 %
22.04.2019 08:24 8,8 C 12,2 C 10,0 C 90 % 1009,4 hPa 0,0 l/m 0 min 0 min 78 W/m 0,0 km/h (0 Bft) 93,62 %
22.04.2019 08:26 8,9 C 12,8 C 10,0 C 90 % 1009,4 hPa 0,0 l/m 0 min 0 min 82 W/m 0,0 km/h (0 Bft) 95,74 %
22.04.2019 08:28 9,0 C 12,8 C 10,6 C 90 % 1009,4 hPa 0,0 l/m 0 min 0 min 86 W/m 9,7 km/h (2 Bft) 95,74 %
22.04.2019 08:30 9,1 C 13,3 C 11,1 C 89 % 1009,3 hPa 0,0 l/m 0 min 0 min 91 W/m 6,4 km/h (2 Bft) 95,74 %
22.04.2019 08:32 9,3 C 13,3 C 11,1 C 89 % 1009,3 hPa 0,0 l/m 0 min 0 min 93 W/m 9,7 km/h (2 Bft) 95,65 %
22.04.2019 08:34 9,4 C 13,9 C 11,7 C 89 % 1009,3 hPa 0,0 l/m 0 min 0 min 97 W/m 6,4 km/h (2 Bft) 97,87 %
22.04.2019 08:36 9,7 C 13,9 C 11,7 C 88 % 1009,3 hPa 0,0 l/m 0 min 0 min 97 W/m 6,4 km/h (2 Bft) 97,87 %
22.04.2019 08:38 9,8 C 13,9 C 12,2 C 87 % 1009,3 hPa 0,0 l/m 0 min 0 min 95 W/m 6,4 km/h (2 Bft) 97,87 %
22.04.2019 08:40 10,0 C 14,4 C 12,2 C 86 % 1009,3 hPa 0,0 l/m 0 min 0 min 97 W/m 6,4 km/h (2 Bft) 97,87 %
22.04.2019 08:42 10,2 C 14,4 C 12,2 C 85 % 1009,3 hPa 0,0 l/m 0 min 0 min 100 W/m 6,4 km/h (2 Bft) 95,74 %
22.04.2019 08:44 10,3 C 15,0 C 12,8 C 85 % 1009,3 hPa 0,0 l/m 0 min 0 min 103 W/m 9,7 km/h (2 Bft) 97,83 %
22.04.2019 08:46 10,6 C 15,6 C 12,8 C 84 % 1009,3 hPa 0,0 l/m 0 min 0 min 115 W/m 9,7 km/h (2 Bft) 97,87 %
22.04.2019 08:48 10,8 C 16,1 C 13,3 C 83 % 1009,3 hPa 0,0 l/m 0 min 0 min 167 W/m 6,4 km/h (2 Bft) 100,00 %
22.04.2019 08:50 11,0 C 16,7 C 13,3 C 82 % 1009,3 hPa 0,0 l/m 0 min 0 min 167 W/m 9,7 km/h (2 Bft) 97,87 %
22.04.2019 08:52 11,3 C 17,2 C 13,9 C 81 % 1009,3 hPa 0,0 l/m 0 min 0 min 164 W/m 16,1 km/h (3 Bft) 97,87 %
22.04.2019 08:54 11,6 C 17,2 C 13,9 C 79 % 1009,3 hPa 0,0 l/m 0 min 0 min 160 W/m 6,4 km/h (2 Bft) 97,87 %
22.04.2019 08:56 11,9 C 17,2 C 13,9 C 77 % 1009,3 hPa 0,0 l/m 0 min 0 min 150 W/m 9,7 km/h (2 Bft) 97,83 %
22.04.2019 08:58 12,2 C 17,8 C 14,4 C 76 % 1009,3 hPa 0,0 l/m 0 min 0 min 141 W/m 6,4 km/h (2 Bft) 97,87 %
22.04.2019 09:00 12,4 C 17,8 C 14,4 C 75 % 1009,3 hPa 0,0 l/m 0 min 0 min 129 W/m 9,7 km/h (2 Bft) 95,74 %
22.04.2019 09:02 12,7 C 17,2 C 14,4 C 74 % 1009,3 hPa 0,0 l/m 0 min 0 min 120 W/m 9,7 km/h (2 Bft) 95,74 %
22.04.2019 09:04 12,9 C 16,7 C 14,4 C 72 % 1009,2 hPa 0,0 l/m 0 min 0 min 118 W/m 6,4 km/h (2 Bft) 95,74 %
22.04.2019 09:06 13,2 C 17,2 C 15,0 C 71 % 1009,3 hPa 0,0 l/m 0 min 0 min 118 W/m 6,4 km/h (2 Bft) 97,87 %
22.04.2019 09:08 13,4 C 17,8 C 15,0 C 71 % 1009,2 hPa 0,0 l/m 0 min 0 min 118 W/m 9,7 km/h (2 Bft) 95,65 %
22.04.2019 09:10 13,6 C 17,8 C 15,0 C 70 % 1009,3 hPa 0,0 l/m 0 min 0 min 115 W/m 9,7 km/h (2 Bft) 97,87 %
22.04.2019 09:12 13,9 C 18,3 C 15,6 C 69 % 1009,2 hPa 0,0 l/m 0 min 0 min 114 W/m 9,7 km/h (2 Bft) 97,87 %
22.04.2019 09:14 14,2 C 18,3 C 16,1 C 67 % 1009,3 hPa 0,0 l/m 0 min 0 min 109 W/m 12,9 km/h (3 Bft) 97,87 %
22.04.2019 09:16 14,2 C 18,3 C 17,2 C 67 % 1009,2 hPa 0,0 l/m 0 min 0 min 106 W/m 9,7 km/h (2 Bft) 97,87 %
22.04.2019 09:18 14,4 C 18,9 C 18,3 C 67 % 1009,2 hPa 0,0 l/m 0 min 0 min 106 W/m 6,4 km/h (2 Bft) 95,74 %
22.04.2019 09:20 14,7 C 18,9 C 18,9 C 66 % 1009,2 hPa 0,0 l/m 0 min 0 min 106 W/m 9,7 km/h (2 Bft) 97,83 %
22.04.2019 09:22 14,8 C 19,4 C 19,4 C 65 % 1009,2 hPa 0,0 l/m 0 min 0 min 104 W/m 9,7 km/h (2 Bft) 97,87 %
22.04.2019 09:24 15,0 C 18,9 C 19,4 C 64 % 1009,2 hPa 0,0 l/m 0 min 0 min 102 W/m 16,1 km/h (3 Bft) 97,87 %
22.04.2019 09:26 15,2 C 19,4 C 20,0 C 64 % 1009,1 hPa 0,0 l/m 0 min 0 min 102 W/m 12,9 km/h (3 Bft) 95,74 %
22.04.2019 09:28 15,4 C 19,4 C 20,0 C 63 % 1009,2 hPa 0,0 l/m 0 min 0 min 101 W/m 9,7 km/h (2 Bft) 97,87 %
22.04.2019 09:30 15,6 C 20,0 C 20,6 C 63 % 1009,1 hPa 0,0 l/m 0 min 0 min 100 W/m 16,1 km/h (3 Bft) 97,87 %
22.04.2019 09:32 15,7 C 20,0 C 21,1 C 63 % 1009,2 hPa 0,0 l/m 0 min 0 min 102 W/m 9,7 km/h (2 Bft) 95,65 %
22.04.2019 09:34 15,9 C 20,6 C 21,1 C 62 % 1009,2 hPa 0,0 l/m 0 min 0 min 102 W/m 6,4 km/h (2 Bft) 100,00 %
22.04.2019 09:36 16,1 C 20,6 C 21,1 C 62 % 1009,1 hPa 0,0 l/m 0 min 0 min 102 W/m 12,9 km/h (3 Bft) 98,31 %
22.04.2019 09:38 16,2 C 21,1 C 22,2 C 62 % 1009,2 hPa 0,0 l/m 0 min 0 min 101 W/m 3,2 km/h (1 Bft) 100,00 %
22.04.2019 09:40 16,4 C 21,1 C 21,7 C 61 % 1009,1 hPa 0,0 l/m 0 min 0 min 99 W/m 12,9 km/h (3 Bft) 100,00 %
22.04.2019 09:42 16,5 C 21,7 C 22,2 C 61 % 1009,1 hPa 0,0 l/m 0 min 0 min 98 W/m 12,9 km/h (3 Bft) 100,00 %
22.04.2019 09:44 16,7 C 21,1 C 22,2 C 60 % 1009,1 hPa 0,0 l/m 0 min 0 min 98 W/m 19,3 km/h (3 Bft) 97,87 %
22.04.2019 09:46 16,8 C 21,7 C 22,8 C 60 % 1009,0 hPa 0,0 l/m 0 min 0 min 98 W/m 9,7 km/h (2 Bft) 100,00 %
22.04.2019 09:48 16,9 C 21,7 C 23,3 C 58 % 1009,0 hPa 0,0 l/m 0 min 0 min 98 W/m 9,7 km/h (2 Bft) 100,00 %
22.04.2019 09:50 17,1 C 22,2 C 23,3 C 58 % 1009,0 hPa 0,0 l/m 0 min 0 min 98 W/m 9,7 km/h (2 Bft) 100,00 %
22.04.2019 09:52 17,2 C 22,8 C 23,3 C 58 % 1009,0 hPa 0,0 l/m 0 min 0 min 98 W/m 6,4 km/h (2 Bft) 97,87 %
22.04.2019 09:54 17,3 C 22,2 C 22,8 C 58 % 1009,0 hPa 0,0 l/m 0 min 0 min 98 W/m 12,9 km/h (3 Bft) 97,87 %
22.04.2019 09:56 17,6 C 22,8 C 23,3 C 57 % 1009,0 hPa 0,0 l/m 0 min 0 min 97 W/m 12,9 km/h (3 Bft) 100,00 %
22.04.2019 09:58 17,7 C 22,2 C 22,8 C 56 % 1009,0 hPa 0,0 l/m 0 min 0 min 97 W/m 16,1 km/h (3 Bft) 100,00 %
22.04.2019 10:00 17,9 C 22,8 C 23,9 C 57 % 1008,9 hPa 0,0 l/m 0 min 0 min 97 W/m 9,7 km/h (2 Bft) 100,00 %
22.04.2019 10:02 18,1 C 22,8 C 23,9 C 56 % 1008,9 hPa 0,0 l/m 0 min 0 min 97 W/m 9,7 km/h (2 Bft) 98,21 %
22.04.2019 10:04 18,2 C 23,3 C 24,4 C 55 % 1008,9 hPa 0,0 l/m 0 min 0 min 101 W/m 16,1 km/h (3 Bft) 100,00 %
22.04.2019 10:06 18,3 C 22,8 C 23,9 C 54 % 1008,9 hPa 0,0 l/m 0 min 0 min 115 W/m 19,3 km/h (3 Bft) 100,00 %
22.04.2019 10:08 18,5 C 22,8 C 23,9 C 53 % 1008,9 hPa 0,0 l/m 0 min 0 min 135 W/m 16,1 km/h (3 Bft) 100,00 %
22.04.2019 10:10 18,6 C 22,8 C 23,9 C 53 % 1008,8 hPa 0,0 l/m 0 min 0 min 167 W/m 16,1 km/h (3 Bft) 100,00 %
22.04.2019 10:12 18,8 C 23,3 C 24,4 C 54 % 1008,8 hPa 0,0 l/m 0 min 0 min 213 W/m 12,9 km/h (3 Bft) 100,00 %
22.04.2019 10:14 18,9 C 23,9 C 25,0 C 52 % 1008,7 hPa 0,0 l/m 0 min 0 min 253 W/m 16,1 km/h (3 Bft) 97,87 %
22.04.2019 10:16 19,1 C 23,9 C 25,0 C 51 % 1008,7 hPa 0,0 l/m 2 min 0 min 320 W/m 16,1 km/h (3 Bft) 98,08 %
22.04.2019 10:18 19,2 C 23,3 C 25,6 C 51 % 1008,7 hPa 0,0 l/m 2 min 0 min 380 W/m 12,9 km/h (3 Bft) 100,00 %
22.04.2019 10:20 19,3 C 23,3 C 25,0 C 50 % 1008,7 hPa 0,0 l/m 2 min 0 min 429 W/m 12,9 km/h (3 Bft) 100,00 %
22.04.2019 10:22 19,3 C 22,8 C 24,4 C 50 % 1008,7 hPa 0,0 l/m 2 min 0 min 477 W/m 22,5 km/h (4 Bft) 100,00 %
22.04.2019 10:24 19,4 C 23,3 C 24,4 C 49 % 1008,6 hPa 0,0 l/m 2 min 0 min 509 W/m 22,5 km/h (4 Bft) 100,00 %
22.04.2019 10:26 19,6 C 23,3 C 24,4 C 50 % 1008,7 hPa 0,0 l/m 2 min 0 min 543 W/m 22,5 km/h (4 Bft) 100,00 %
22.04.2019 10:28 19,7 C 23,3 C 25,0 C 49 % 1008,6 hPa 0,0 l/m 2 min 0 min 564 W/m 16,1 km/h (3 Bft) 97,87 %
22.04.2019 10:30 19,8 C 23,9 C 25,0 C 49 % 1008,6 hPa 0,0 l/m 2 min 0 min 567 W/m 25,7 km/h (4 Bft) 97,87 %
22.04.2019 10:32 19,9 C 23,9 C 25,6 C 48 % 1008,7 hPa 0,0 l/m 2 min 0 min 573 W/m 22,5 km/h (4 Bft) 97,83 %
22.04.2019 10:34 19,9 C 23,3 C 25,6 C 48 % 1008,6 hPa 0,0 l/m 2 min 0 min 585 W/m 22,5 km/h (4 Bft) 95,74 %
22.04.2019 10:36 20,1 C 23,9 C 25,6 C 48 % 1008,6 hPa 0,0 l/m 2 min 0 min 592 W/m 25,7 km/h (4 Bft) 97,87 %
22.04.2019 10:38 20,1 C 25,0 C 26,1 C 48 % 1008,6 hPa 0,0 l/m 2 min 0 min 596 W/m 6,4 km/h (2 Bft) 97,87 %
22.04.2019 10:40 20,2 C 25,0 C 26,1 C 48 % 1008,6 hPa 0,0 l/m 2 min 0 min 595 W/m 19,3 km/h (3 Bft) 95,74 %
22.04.2019 10:42 20,3 C 24,4 C 26,1 C 47 % 1008,6 hPa 0,0 l/m 2 min 0 min 597 W/m 19,3 km/h (3 Bft) 97,83 %
22.04.2019 10:44 20,4 C 25,0 C 26,7 C 47 % 1008,5 hPa 0,0 l/m 2 min 0 min 612 W/m 12,9 km/h (3 Bft) 97,87 %
22.04.2019 10:46 20,6 C 25,0 C 26,7 C 47 % 1008,6 hPa 0,0 l/m 2 min 0 min 619 W/m 16,1 km/h (3 Bft) 95,74 %
22.04.2019 10:48 20,7 C 26,1 C 27,2 C 47 % 1008,5 hPa 0,0 l/m 2 min 0 min 625 W/m 9,7 km/h (2 Bft) 97,87 %
22.04.2019 10:50 20,8 C 26,1 C 27,8 C 47 % 1008,5 hPa 0,0 l/m 2 min 0 min 629 W/m 19,3 km/h (3 Bft) 97,87 %
22.04.2019 10:52 20,9 C 25,6 C 27,2 C 47 % 1008,4 hPa 0,0 l/m 2 min 0 min 631 W/m 12,9 km/h (3 Bft) 95,74 %
22.04.2019 10:54 21,0 C 26,1 C 26,7 C 47 % 1008,4 hPa 0,0 l/m 2 min 0 min 638 W/m 9,7 km/h (2 Bft) 97,83 %
22.04.2019 10:56 21,1 C 25,6 C 26,1 C 46 % 1008,4 hPa 0,0 l/m 2 min 0 min 645 W/m 12,9 km/h (3 Bft) 95,74 %
22.04.2019 10:58 21,2 C 25,6 C 26,1 C 45 % 1008,4 hPa 0,0 l/m 2 min 0 min 649 W/m 16,1 km/h (3 Bft) 97,87 %
22.04.2019 11:00 21,2 C 25,0 C 25,6 C 45 % 1008,3 hPa 0,0 l/m 2 min 0 min 655 W/m 12,9 km/h (3 Bft) 97,87 %
22.04.2019 11:02 21,2 C 25,6 C 26,1 C 46 % 1008,3 hPa 0,0 l/m 2 min 0 min 659 W/m 16,1 km/h (3 Bft) 97,87 %
22.04.2019 11:04 21,3 C 25,0 C 26,1 C 44 % 1008,3 hPa 0,0 l/m 2 min 0 min 663 W/m 29,0 km/h (5 Bft) 91,49 %
22.04.2019 11:06 21,3 C 25,6 C 26,1 C 45 % 1008,2 hPa 0,0 l/m 2 min 0 min 665 W/m 12,9 km/h (3 Bft) 95,65 %
22.04.2019 11:08 21,4 C 25,6 C 26,7 C 45 % 1008,2 hPa 0,0 l/m 2 min 0 min 668 W/m 16,1 km/h (3 Bft) 96,00 %
22.04.2019 11:10 21,5 C 26,1 C 27,2 C 45 % 1008,2 hPa 0,0 l/m 2 min 0 min 675 W/m 12,9 km/h (3 Bft) 97,87 %
22.04.2019 11:12 21,6 C 26,1 C 26,7 C 44 % 1008,2 hPa 0,0 l/m 2 min 0 min 681 W/m 19,3 km/h (3 Bft) 93,62 %
22.04.2019 11:14 21,6 C 26,1 C 27,2 C 44 % 1008,1 hPa 0,0 l/m 2 min 0 min 686 W/m 9,7 km/h (2 Bft) 95,74 %
22.04.2019 11:16 21,7 C 25,6 C 26,7 C 44 % 1008,1 hPa 0,0 l/m 2 min 0 min 689 W/m 16,1 km/h (3 Bft) 95,65 %
22.04.2019 11:18 21,7 C 26,1 C 26,7 C 44 % 1008,1 hPa 0,0 l/m 2 min 0 min 693 W/m 22,5 km/h (4 Bft) 91,49 %
22.04.2019 11:20 21,8 C 26,7 C 27,2 C 44 % 1008,1 hPa 0,0 l/m 2 min 0 min 696 W/m 12,9 km/h (3 Bft) 91,49 %
22.04.2019 11:22 21,9 C 26,7 C 27,8 C 44 % 1008,1 hPa 0,0 l/m 2 min 0 min 704 W/m 12,9 km/h (3 Bft) 93,62 %
22.04.2019 11:24 21,9 C 26,7 C 27,8 C 44 % 1008,0 hPa 0,0 l/m 2 min 0 min 710 W/m 16,1 km/h (3 Bft) 85,11 %
22.04.2019 11:26 22,1 C 27,2 C 27,8 C 44 % 1008,0 hPa 0,0 l/m 2 min 0 min 714 W/m 12,9 km/h (3 Bft) 74,47 %
22.04.2019 11:28 22,2 C 26,1 C 27,8 C 44 % 1008,0 hPa 0,0 l/m 2 min 0 min 717 W/m 19,3 km/h (3 Bft) 95,65 %
22.04.2019 11:30 22,2 C 27,2 C 27,8 C 44 % 1008,0 hPa 0,0 l/m 2 min 0 min 722 W/m 12,9 km/h (3 Bft) 93,62 %
22.04.2019 11:32 22,3 C 27,2 C 28,3 C 44 % 1008,0 hPa 0,0 l/m 2 min 0 min 727 W/m 12,9 km/h (3 Bft) 97,87 %
22.04.2019 11:34 22,4 C 27,2 C 28,9 C 44 % 1008,0 hPa 0,0 l/m 2 min 0 min 730 W/m 16,1 km/h (3 Bft) 95,74 %
22.04.2019 11:36 22,6 C 26,7 C 28,3 C 43 % 1008,0 hPa 0,0 l/m 2 min 0 min 736 W/m 22,5 km/h (4 Bft) 95,74 %
22.04.2019 11:38 22,6 C 27,2 C 28,3 C 44 % 1008,0 hPa 0,0 l/m 2 min 0 min 737 W/m 12,9 km/h (3 Bft) 93,62 %
22.04.2019 11:40 22,7 C 27,2 C 28,3 C 43 % 1007,9 hPa 0,0 l/m 2 min 0 min 740 W/m 9,7 km/h (2 Bft) 97,83 %
22.04.2019 11:42 22,7 C 27,8 C 28,3 C 43 % 1007,8 hPa 0,0 l/m 2 min 0 min 745 W/m 9,7 km/h (2 Bft) 95,74 %
22.04.2019 11:44 22,8 C 27,8 C 28,9 C 43 % 1007,8 hPa 0,0 l/m 2 min 0 min 747 W/m 16,1 km/h (3 Bft) 97,87 %
22.04.2019 11:46 22,9 C 27,8 C 28,9 C 43 % 1007,8 hPa 0,0 l/m 2 min 0 min 752 W/m 16,1 km/h (3 Bft) 97,87 %
22.04.2019 11:48 22,9 C 27,2 C 27,8 C 42 % 1007,8 hPa 0,0 l/m 2 min 0 min 754 W/m 19,3 km/h (3 Bft) 93,62 %
22.04.2019 11:50 23,1 C 27,2 C 27,8 C 42 % 1007,7 hPa 0,0 l/m 2 min 0 min 760 W/m 19,3 km/h (3 Bft) 95,74 %
22.04.2019 11:52 23,2 C 27,8 C 27,8 C 42 % 1007,7 hPa 0,0 l/m 2 min 0 min 763 W/m 22,5 km/h (4 Bft) 93,48 %
22.04.2019 11:54 23,2 C 27,2 C 27,2 C 41 % 1007,7 hPa 0,0 l/m 2 min 0 min 768 W/m 22,5 km/h (4 Bft) 95,74 %
22.04.2019 11:56 23,3 C 27,8 C 27,8 C 41 % 1007,6 hPa 0,0 l/m 2 min 0 min 770 W/m 12,9 km/h (3 Bft) 95,74 %
22.04.2019 11:58 23,4 C 28,9 C 28,3 C 41 % 1007,5 hPa 0,0 l/m 2 min 0 min 774 W/m 12,9 km/h (3 Bft) 95,74 %
22.04.2019 12:00 23,5 C 28,9 C 27,8 C 41 % 1007,4 hPa 0,0 l/m 2 min 0 min 779 W/m 12,9 km/h (3 Bft) 93,62 %
22.04.2019 12:02 23,6 C 28,9 C 26,7 C 40 % 1007,4 hPa 0,0 l/m 2 min 0 min 781 W/m 16,1 km/h (3 Bft) 95,74 %
22.04.2019 12:04 23,7 C 28,3 C 25,6 C 38 % 1007,4 hPa 0,0 l/m 2 min 0 min 784 W/m 19,3 km/h (3 Bft) 93,48 %
22.04.2019 12:08 23,9 C 27,2 C 26,7 C 37 % 1007,2 hPa 0,0 l/m 4 min 0 min 788 W/m 29,0 km/h (5 Bft) 94,68 %
22.04.2019 12:10 23,9 C 27,8 C 27,2 C 36 % 1007,3 hPa 0,0 l/m 2 min 0 min 792 W/m 16,1 km/h (3 Bft) 91,49 %
22.04.2019 12:12 23,9 C 27,8 C 27,8 C 37 % 1007,2 hPa 0,0 l/m 2 min 0 min 793 W/m 22,5 km/h (4 Bft) 93,62 %
22.04.2019 12:14 24,1 C 28,9 C 29,4 C 38 % 1007,0 hPa 0,0 l/m 2 min 0 min 794 W/m 16,1 km/h (3 Bft) 95,74 %
22.04.2019 12:16 24,1 C 28,3 C 29,4 C 36 % 1006,9 hPa 0,0 l/m 2 min 0 min 793 W/m 16,1 km/h (3 Bft) 93,48 %
22.04.2019 12:18 24,2 C 28,3 C 30,0 C 36 % 1006,9 hPa 0,0 l/m 2 min 0 min 799 W/m 29,0 km/h (5 Bft) 95,74 %
22.04.2019 12:20 24,4 C 28,9 C 30,0 C 36 % 1006,9 hPa 0,0 l/m 2 min 0 min 805 W/m 19,3 km/h (3 Bft) 89,36 %
22.04.2019 12:22 24,4 C 28,3 C 28,9 C 35 % 1006,9 hPa 0,0 l/m 2 min 0 min 806 W/m 22,5 km/h (4 Bft) 93,62 %
22.04.2019 12:24 24,5 C 28,3 C 27,8 C 36 % 1006,9 hPa 0,0 l/m 2 min 0 min 809 W/m 29,0 km/h (5 Bft) 95,74 %
22.04.2019 12:26 24,6 C 28,3 C 28,3 C 35 % 1006,9 hPa 0,0 l/m 2 min 0 min 810 W/m 25,7 km/h (4 Bft) 95,65 %
22.04.2019 12:28 24,6 C 27,8 C 28,9 C 34 % 1007,0 hPa 0,0 l/m 2 min 0 min 820 W/m 32,2 km/h (5 Bft) 89,36 %
22.04.2019 12:30 24,6 C 27,2 C 28,9 C 34 % 1006,9 hPa 0,0 l/m 2 min 0 min 816 W/m 38,6 km/h (5 Bft) 95,74 %
22.04.2019 12:32 24,6 C 27,2 C 28,9 C 34 % 1006,8 hPa 0,0 l/m 2 min 0 min 817 W/m 38,6 km/h (5 Bft) 87,23 %
22.04.2019 12:34 24,6 C 27,2 C 28,9 C 34 % 1006,8 hPa 0,0 l/m 2 min 0 min 821 W/m 35,4 km/h (5 Bft) 93,62 %
22.04.2019 12:36 24,6 C 27,8 C 28,9 C 34 % 1006,7 hPa 0,0 l/m 2 min 0 min 824 W/m 25,7 km/h (4 Bft) 87,23 %
22.04.2019 12:38 24,6 C 27,8 C 28,9 C 34 % 1006,7 hPa 0,0 l/m 2 min 0 min 829 W/m 22,5 km/h (4 Bft) 95,65 %
22.04.2019 12:40 24,6 C 27,2 C 28,9 C 34 % 1006,7 hPa 0,0 l/m 2 min 0 min 830 W/m 38,6 km/h (5 Bft) 97,87 %
22.04.2019 12:42 24,5 C 27,2 C 28,9 C 34 % 1006,7 hPa 0,0 l/m 2 min 0 min 829 W/m 45,1 km/h (6 Bft) 100,00 %
22.04.2019 12:44 24,5 C 27,2 C 28,9 C 35 % 1006,7 hPa 0,0 l/m 2 min 0 min 834 W/m 41,8 km/h (6 Bft) 97,87 %
22.04.2019 12:46 24,5 C 27,8 C 28,9 C 35 % 1006,7 hPa 0,0 l/m 2 min 0 min 835 W/m 41,8 km/h (6 Bft) 97,87 %
22.04.2019 12:48 24,4 C 27,2 C 28,9 C 35 % 1006,7 hPa 0,0 l/m 2 min 0 min 837 W/m 32,2 km/h (5 Bft) 93,62 %
22.04.2019 12:50 24,5 C 27,8 C 30,0 C 35 % 1006,6 hPa 0,0 l/m 2 min 0 min 838 W/m 32,2 km/h (5 Bft) 100,00 %
22.04.2019 12:52 24,5 C 27,8 C 29,4 C 35 % 1006,6 hPa 0,0 l/m 2 min 0 min 837 W/m 38,6 km/h (5 Bft) 95,65 %
22.04.2019 12:54 24,6 C 27,8 C 28,9 C 35 % 1006,6 hPa 0,0 l/m 2 min 0 min 836 W/m 32,2 km/h (5 Bft) 95,74 %
22.04.2019 12:56 24,6 C 27,8 C 28,9 C 35 % 1006,6 hPa 0,0 l/m 2 min 0 min 844 W/m 19,3 km/h (3 Bft) 97,87 %
22.04.2019 12:58 24,6 C 28,3 C 28,9 C 35 % 1006,5 hPa 0,0 l/m 2 min 0 min 846 W/m 25,7 km/h (4 Bft) 93,62 %
22.04.2019 13:00 24,7 C 28,3 C 30,0 C 34 % 1006,4 hPa 0,0 l/m 2 min 0 min 845 W/m 41,8 km/h (6 Bft) 95,74 %
22.04.2019 13:02 24,7 C 28,3 C 30,6 C 34 % 1006,4 hPa 0,0 l/m 2 min 0 min 847 W/m 29,0 km/h (5 Bft) 97,83 %
22.04.2019 13:04 24,8 C 28,3 C 30,6 C 34 % 1006,4 hPa 0,0 l/m 2 min 0 min 847 W/m 32,2 km/h (5 Bft) 91,49 %
22.04.2019 13:06 24,8 C 28,3 C 30,0 C 33 % 1006,3 hPa 0,0 l/m 2 min 0 min 847 W/m 35,4 km/h (5 Bft) 93,62 %
22.04.2019 13:08 24,9 C 28,9 C 31,1 C 34 % 1006,3 hPa 0,0 l/m 2 min 0 min 848 W/m 22,5 km/h (4 Bft) 89,36 %
22.04.2019 13:10 24,9 C 28,9 C 31,1 C 35 % 1006,2 hPa 0,0 l/m 2 min 0 min 848 W/m 32,2 km/h (5 Bft) 95,74 %
22.04.2019 13:12 25,1 C 28,9 C 31,1 C 34 % 1006,2 hPa 0,0 l/m 2 min 0 min 849 W/m 19,3 km/h (3 Bft) 89,36 %
22.04.2019 13:14 25,1 C 28,3 C 30,6 C 34 % 1006,1 hPa 0,0 l/m 2 min 0 min 851 W/m 32,2 km/h (5 Bft) 95,65 %
22.04.2019 13:16 25,1 C 28,9 C 31,1 C 34 % 1006,1 hPa 0,0 l/m 2 min 0 min 849 W/m 16,1 km/h (3 Bft) 97,87 %
22.04.2019 13:18 25,1 C 28,9 C 30,6 C 34 % 1006,1 hPa 0,0 l/m 2 min 0 min 854 W/m 22,5 km/h (4 Bft) 89,36 %
22.04.2019 13:20 25,1 C 28,9 C 30,6 C 34 % 1006,1 hPa 0,0 l/m 2 min 0 min 852 W/m 32,2 km/h (5 Bft) 89,36 %
22.04.2019 13:22 25,1 C 28,9 C 30,6 C 34 % 1006,2 hPa 0,0 l/m 2 min 0 min 850 W/m 22,5 km/h (4 Bft) 89,36 %
22.04.2019 13:24 25,1 C 28,3 C 30,6 C 33 % 1006,1 hPa 0,0 l/m 2 min 0 min 845 W/m 19,3 km/h (3 Bft) 93,62 %
22.04.2019 13:26 25,2 C 28,9 C 30,6 C 33 % 1006,1 hPa 0,0 l/m 2 min 0 min 849 W/m 19,3 km/h (3 Bft) 89,13 %
22.04.2019 13:28 25,2 C 28,9 C 30,6 C 33 % 1006,0 hPa 0,0 l/m 2 min 0 min 851 W/m 25,7 km/h (4 Bft) 91,30 %
22.04.2019 13:30 25,2 C 28,9 C 31,7 C 32 % 1006,1 hPa 0,0 l/m 2 min 0 min 859 W/m 29,0 km/h (5 Bft) 93,62 %
22.04.2019 13:32 25,2 C 29,4 C 31,7 C 33 % 1006,0 hPa 0,0 l/m 2 min 0 min 863 W/m 22,5 km/h (4 Bft) 91,49 %
22.04.2019 13:34 25,2 C 28,3 C 31,1 C 32 % 1006,0 hPa 0,0 l/m 2 min 0 min 860 W/m 29,0 km/h (5 Bft) 95,74 %
22.04.2019 13:36 25,3 C 28,9 C 31,7 C 33 % 1006,0 hPa 0,0 l/m 2 min 0 min 853 W/m 22,5 km/h (4 Bft) 97,87 %
22.04.2019 13:38 25,3 C 30,0 C 32,2 C 34 % 1006,0 hPa 0,0 l/m 2 min 0 min 853 W/m 22,5 km/h (4 Bft) 86,96 %
22.04.2019 13:40 25,4 C 28,9 C 31,7 C 33 % 1005,9 hPa 0,0 l/m 2 min 0 min 851 W/m 35,4 km/h (5 Bft) 97,87 %
22.04.2019 13:42 25,4 C 28,3 C 31,1 C 32 % 1005,9 hPa 0,0 l/m 2 min 0 min 826 W/m 35,4 km/h (5 Bft) 93,62 %
22.04.2019 13:44 25,3 C 28,3 C 31,1 C 33 % 1005,9 hPa 0,0 l/m 2 min 0 min 824 W/m 19,3 km/h (3 Bft) 97,87 %
22.04.2019 13:46 25,3 C 28,3 C 30,6 C 32 % 1005,8 hPa 0,0 l/m 2 min 0 min 830 W/m 25,7 km/h (4 Bft) 93,62 %
22.04.2019 13:48 25,2 C 28,3 C 30,6 C 32 % 1005,8 hPa 0,0 l/m 2 min 0 min 836 W/m 25,7 km/h (4 Bft) 97,83 %
22.04.2019 13:50 25,2 C 28,9 C 31,1 C 32 % 1005,7 hPa 0,0 l/m 2 min 0 min 842 W/m 25,7 km/h (4 Bft) 97,87 %
22.04.2019 13:52 25,3 C 28,9 C 31,1 C 32 % 1005,7 hPa 0,0 l/m 2 min 0 min 824 W/m 25,7 km/h (4 Bft) 100,00 %
22.04.2019 13:54 25,3 C 28,3 C 31,1 C 32 % 1005,7 hPa 0,0 l/m 2 min 0 min 797 W/m 32,2 km/h (5 Bft) 89,36 %
22.04.2019 13:56 25,3 C 28,3 C 31,1 C 32 % 1005,6 hPa 0,0 l/m 2 min 0 min 807 W/m 25,7 km/h (4 Bft) 97,87 %
22.04.2019 13:58 25,4 C 29,4 C 31,7 C 33 % 1005,6 hPa 0,0 l/m 2 min 0 min 819 W/m 25,7 km/h (4 Bft) 100,00 %
22.04.2019 14:00 25,4 C 28,9 C 31,7 C 32 % 1005,5 hPa 0,0 l/m 2 min 0 min 800 W/m 29,0 km/h (5 Bft) 100,00 %
22.04.2019 14:02 25,4 C 27,8 C 30,6 C 32 % 1005,5 hPa 0,0 l/m 2 min 0 min 789 W/m 45,1 km/h (6 Bft) 100,00 %
22.04.2019 14:04 25,4 C 28,3 C 31,1 C 32 % 1005,5 hPa 0,0 l/m 2 min 0 min 794 W/m 16,1 km/h (3 Bft) 95,74 %
22.04.2019 14:06 25,4 C 28,3 C 30,6 C 32 % 1005,5 hPa 0,0 l/m 2 min 0 min 795 W/m 19,3 km/h (3 Bft) 97,87 %
22.04.2019 14:08 25,4 C 28,9 C 31,1 C 33 % 1005,5 hPa 0,0 l/m 2 min 0 min 781 W/m 19,3 km/h (3 Bft) 97,87 %
22.04.2019 14:10 25,5 C 28,9 C 31,7 C 33 % 1005,5 hPa 0,0 l/m 2 min 0 min 771 W/m 16,1 km/h (3 Bft) 100,00 %
22.04.2019 14:12 25,5 C 29,4 C 32,2 C 33 % 1005,5 hPa 0,0 l/m 2 min 0 min 819 W/m 19,3 km/h (3 Bft) 93,48 %
22.04.2019 14:14 25,6 C 28,9 C 31,1 C 32 % 1005,5 hPa 0,0 l/m 2 min 0 min 835 W/m 25,7 km/h (4 Bft) 95,74 %
22.04.2019 14:16 25,6 C 30,0 C 32,2 C 33 % 1005,4 hPa 0,0 l/m 2 min 0 min 838 W/m 9,7 km/h (2 Bft) 97,87 %
22.04.2019 14:18 25,7 C 30,6 C 32,8 C 33 % 1005,3 hPa 0,0 l/m 2 min 0 min 825 W/m 16,1 km/h (3 Bft) 97,87 %
22.04.2019 14:20 25,8 C 30,0 C 32,8 C 33 % 1005,4 hPa 0,0 l/m 2 min 0 min 829 W/m 19,3 km/h (3 Bft) 97,87 %
22.04.2019 14:22 25,9 C 30,0 C 32,2 C 32 % 1005,3 hPa 0,0 l/m 2 min 0 min 812 W/m 16,1 km/h (3 Bft) 97,87 %
22.04.2019 14:24 25,9 C 28,9 C 31,7 C 32 % 1005,3 hPa 0,0 l/m 2 min 0 min 785 W/m 32,2 km/h (5 Bft) 97,83 %
22.04.2019 14:26 25,9 C 28,3 C 31,1 C 31 % 1005,2 hPa 0,0 l/m 2 min 0 min 784 W/m 35,4 km/h (5 Bft) 100,00 %
22.04.2019 14:28 25,9 C 28,3 C 30,6 C 31 % 1005,2 hPa 0,0 l/m 2 min 0 min 787 W/m 25,7 km/h (4 Bft) 100,00 %
22.04.2019 14:30 25,9 C 29,4 C 31,7 C 32 % 1005,2 hPa 0,0 l/m 2 min 0 min 807 W/m 16,1 km/h (3 Bft) 100,00 %
22.04.2019 14:32 25,9 C 30,0 C 32,2 C 34 % 1005,3 hPa 0,0 l/m 2 min 0 min 778 W/m 16,1 km/h (3 Bft) 97,87 %
22.04.2019 14:34 26,1 C 30,0 C 32,2 C 34 % 1005,2 hPa 0,0 l/m 2 min 0 min 800 W/m 16,1 km/h (3 Bft) 100,00 %
22.04.2019 14:36 26,1 C 30,0 C 31,7 C 32 % 1005,2 hPa 0,0 l/m 2 min 0 min 812 W/m 12,9 km/h (3 Bft) 100,00 %
22.04.2019 14:38 26,1 C 30,6 C 31,1 C 33 % 1005,1 hPa 0,0 l/m 2 min 0 min 821 W/m 19,3 km/h (3 Bft) 95,74 %
22.04.2019 14:40 26,2 C 30,0 C 30,0 C 33 % 1005,1 hPa 0,0 l/m 2 min 0 min 805 W/m 16,1 km/h (3 Bft) 100,00 %
22.04.2019 14:42 26,2 C 30,0 C 30,0 C 33 % 1005,0 hPa 0,0 l/m 2 min 0 min 807 W/m 19,3 km/h (3 Bft) 95,74 %
22.04.2019 14:44 26,2 C 30,6 C 30,0 C 32 % 1005,0 hPa 0,0 l/m 2 min 0 min 828 W/m 12,9 km/h (3 Bft) 97,87 %
22.04.2019 14:46 26,2 C 30,0 C 29,4 C 32 % 1004,9 hPa 0,0 l/m 2 min 0 min 830 W/m 22,5 km/h (4 Bft) 95,74 %
22.04.2019 14:48 26,3 C 30,0 C 28,9 C 32 % 1004,9 hPa 0,0 l/m 2 min 0 min 810 W/m 16,1 km/h (3 Bft) 97,83 %
22.04.2019 14:50 26,3 C 29,4 C 28,3 C 32 % 1004,9 hPa 0,0 l/m 2 min 0 min 753 W/m 19,3 km/h (3 Bft) 100,00 %
22.04.2019 14:52 26,3 C 28,3 C 27,8 C 31 % 1004,8 hPa 0,0 l/m 2 min 0 min 696 W/m 25,7 km/h (4 Bft) 100,00 %
22.04.2019 14:54 26,2 C 28,3 C 27,2 C 32 % 1004,9 hPa 0,0 l/m 2 min 0 min 640 W/m 19,3 km/h (3 Bft) 97,87 %
22.04.2019 14:56 26,2 C 27,8 C 26,7 C 31 % 1004,8 hPa 0,0 l/m 2 min 0 min 560 W/m 19,3 km/h (3 Bft) 97,87 %
22.04.2019 14:58 26,1 C 27,2 C 26,1 C 31 % 1004,8 hPa 0,0 l/m 2 min 0 min 516 W/m 19,3 km/h (3 Bft) 97,83 %
22.04.2019 15:00 26,1 C 27,8 C 26,1 C 32 % 1004,8 hPa 0,0 l/m 2 min 0 min 516 W/m 16,1 km/h (3 Bft) 97,87 %
22.04.2019 15:02 26,0 C 28,3 C 26,1 C 32 % 1004,7 hPa 0,0 l/m 2 min 0 min 571 W/m 12,9 km/h (3 Bft) 97,87 %
22.04.2019 15:04 26,0 C 28,9 C 26,1 C 33 % 1004,7 hPa 0,0 l/m 2 min 0 min 721 W/m 12,9 km/h (3 Bft) 93,62 %
22.04.2019 15:06 26,0 C 29,4 C 26,7 C 33 % 1004,6 hPa 0,0 l/m 2 min 0 min 706 W/m 12,9 km/h (3 Bft) 95,74 %
22.04.2019 15:08 26,1 C 30,0 C 26,7 C 33 % 1004,5 hPa 0,0 l/m 2 min 0 min 760 W/m 16,1 km/h (3 Bft) 95,74 %
22.04.2019 15:10 26,1 C 29,4 C 27,2 C 33 % 1004,5 hPa 0,0 l/m 2 min 0 min 797 W/m 19,3 km/h (3 Bft) 95,65 %
22.04.2019 15:12 26,1 C 30,6 C 27,2 C 32 % 1004,5 hPa 0,0 l/m 2 min 0 min 802 W/m 9,7 km/h (2 Bft) 95,74 %
22.04.2019 15:14 26,2 C 30,6 C 27,2 C 32 % 1004,5 hPa 0,0 l/m 2 min 0 min 807 W/m 9,7 km/h (2 Bft) 95,74 %
22.04.2019 15:16 26,3 C 31,1 C 27,2 C 33 % 1004,4 hPa 0,0 l/m 2 min 0 min 760 W/m 16,1 km/h (3 Bft) 95,74 %
22.04.2019 15:18 26,4 C 30,6 C 27,2 C 34 % 1004,3 hPa 0,0 l/m 2 min 0 min 756 W/m 16,1 km/h (3 Bft) 91,49 %
22.04.2019 15:20 26,4 C 30,0 C 27,2 C 32 % 1004,4 hPa 0,0 l/m 2 min 0 min 752 W/m 25,7 km/h (4 Bft) 95,74 %
22.04.2019 15:22 26,4 C 28,9 C 26,7 C 30 % 1004,4 hPa 0,0 l/m 2 min 0 min 751 W/m 19,3 km/h (3 Bft) 93,48 %
22.04.2019 15:24 26,4 C 28,9 C 26,1 C 30 % 1004,4 hPa 0,0 l/m 2 min 0 min 746 W/m 22,5 km/h (4 Bft) 93,62 %
22.04.2019 15:26 26,3 C 28,9 C 26,1 C 30 % 1004,4 hPa 0,0 l/m 2 min 0 min 738 W/m 12,9 km/h (3 Bft) 95,74 %
22.04.2019 15:28 26,3 C 30,0 C 26,1 C 31 % 1004,3 hPa 0,0 l/m 2 min 0 min 735 W/m 12,9 km/h (3 Bft) 97,87 %
22.04.2019 15:30 26,4 C 30,6 C 26,7 C 32 % 1004,2 hPa 0,0 l/m 2 min 0 min 745 W/m 9,7 km/h (2 Bft) 95,74 %
22.04.2019 15:32 26,4 C 30,6 C 27,2 C 33 % 1004,2 hPa 0,0 l/m 2 min 0 min 736 W/m 16,1 km/h (3 Bft) 93,62 %
22.04.2019 15:34 26,5 C 30,6 C 26,7 C 33 % 1004,2 hPa 0,0 l/m 2 min 0 min 714 W/m 16,1 km/h (3 Bft) 93,48 %
22.04.2019 15:36 26,6 C 30,0 C 27,2 C 32 % 1004,2 hPa 0,0 l/m 2 min 0 min 719 W/m 12,9 km/h (3 Bft) 91,49 %
22.04.2019 15:38 26,6 C 29,4 C 26,7 C 30 % 1004,2 hPa 0,0 l/m 2 min 0 min 731 W/m 19,3 km/h (3 Bft) 91,49 %
22.04.2019 15:40 26,6 C 29,4 C 26,7 C 30 % 1004,1 hPa 0,0 l/m 2 min 0 min 735 W/m 16,1 km/h (3 Bft) 91,49 %
22.04.2019 15:42 26,6 C 30,0 C 26,7 C 31 % 1004,1 hPa 0,0 l/m 2 min 0 min 738 W/m 12,9 km/h (3 Bft) 93,62 %
22.04.2019 15:44 26,6 C 29,4 C 26,7 C 31 % 1004,1 hPa 0,0 l/m 2 min 0 min 730 W/m 12,9 km/h (3 Bft) 93,62 %
22.04.2019 15:46 26,6 C 30,0 C 26,7 C 32 % 1004,0 hPa 0,0 l/m 2 min 0 min 718 W/m 16,1 km/h (3 Bft) 93,62 %
22.04.2019 15:48 26,6 C 29,4 C 26,7 C 30 % 1004,1 hPa 0,0 l/m 2 min 0 min 712 W/m 12,9 km/h (3 Bft) 91,30 %
22.04.2019 15:50 26,6 C 29,4 C 26,7 C 31 % 1004,0 hPa 0,0 l/m 2 min 0 min 705 W/m 16,1 km/h (3 Bft) 93,62 %
22.04.2019 15:52 26,7 C 30,0 C 26,7 C 32 % 1004,0 hPa 0,0 l/m 2 min 0 min 710 W/m 12,9 km/h (3 Bft) 93,62 %
22.04.2019 15:54 26,7 C 29,4 C 26,7 C 30 % 1003,9 hPa 0,0 l/m 2 min 0 min 708 W/m 22,5 km/h (4 Bft) 93,62 %
22.04.2019 15:56 26,7 C 29,4 C 26,1 C 30 % 1003,9 hPa 0,0 l/m 2 min 0 min 699 W/m 12,9 km/h (3 Bft) 91,49 %
22.04.2019 15:58 26,7 C 29,4 C 26,1 C 31 % 1003,8 hPa 0,0 l/m 2 min 0 min 692 W/m 16,1 km/h (3 Bft) 95,65 %
22.04.2019 16:00 26,7 C 30,0 C 26,7 C 31 % 1003,8 hPa 0,0 l/m 2 min 0 min 685 W/m 9,7 km/h (2 Bft) 93,62 %
22.04.2019 16:02 26,7 C 29,4 C 26,7 C 31 % 1003,8 hPa 0,0 l/m 2 min 0 min 683 W/m 12,9 km/h (3 Bft) 95,74 %
22.04.2019 16:04 26,8 C 30,0 C 26,7 C 33 % 1003,7 hPa 0,0 l/m 2 min 0 min 678 W/m 12,9 km/h (3 Bft) 87,23 %
22.04.2019 16:06 26,8 C 30,6 C 26,7 C 32 % 1003,7 hPa 0,0 l/m 2 min 0 min 699 W/m 16,1 km/h (3 Bft) 97,87 %
22.04.2019 16:08 26,8 C 29,4 C 26,7 C 31 % 1003,7 hPa 0,0 l/m 2 min 0 min 681 W/m 16,1 km/h (3 Bft) 100,00 %
22.04.2019 16:10 26,8 C 29,4 C 26,7 C 29 % 1003,7 hPa 0,0 l/m 2 min 0 min 672 W/m 19,3 km/h (3 Bft) 95,65 %
22.04.2019 16:12 26,8 C 28,9 C 26,7 C 29 % 1003,6 hPa 0,0 l/m 2 min 0 min 670 W/m 22,5 km/h (4 Bft) 95,74 %
22.04.2019 16:14 26,8 C 28,9 C 26,7 C 28 % 1003,6 hPa 0,0 l/m 2 min 0 min 668 W/m 19,3 km/h (3 Bft) 91,49 %
22.04.2019 16:16 26,7 C 28,9 C 27,2 C 29 % 1003,5 hPa 0,0 l/m 2 min 0 min 659 W/m 12,9 km/h (3 Bft) 100,00 %
22.04.2019 16:18 26,8 C 29,4 C 27,8 C 29 % 1003,5 hPa 0,0 l/m 2 min 0 min 665 W/m 16,1 km/h (3 Bft) 95,74 %
22.04.2019 16:20 26,8 C 30,0 C 27,8 C 29 % 1003,5 hPa 0,0 l/m 2 min 0 min 660 W/m 12,9 km/h (3 Bft) 100,00 %
22.04.2019 16:22 26,8 C 29,4 C 27,2 C 30 % 1003,5 hPa 0,0 l/m 2 min 0 min 645 W/m 16,1 km/h (3 Bft) 100,00 %
22.04.2019 16:24 26,9 C 29,4 C 27,2 C 30 % 1003,5 hPa 0,0 l/m 2 min 0 min 639 W/m 12,9 km/h (3 Bft) 100,00 %
22.04.2019 16:26 26,9 C 30,0 C 27,2 C 32 % 1003,4 hPa 0,0 l/m 2 min 0 min 643 W/m 12,9 km/h (3 Bft) 100,00 %
22.04.2019 16:28 27,0 C 30,0 C 26,7 C 30 % 1003,3 hPa 0,0 l/m 2 min 0 min 646 W/m 25,7 km/h (4 Bft) 97,87 %
22.04.2019 16:30 27,0 C 29,4 C 26,7 C 29 % 1003,1 hPa 0,0 l/m 2 min 0 min 647 W/m 19,3 km/h (3 Bft) 100,00 %
22.04.2019 16:32 27,0 C 28,9 C 26,7 C 28 % 1003,2 hPa 0,0 l/m 2 min 0 min 648 W/m 25,7 km/h (4 Bft) 97,83 %
22.04.2019 16:34 27,0 C 28,3 C 26,1 C 28 % 1003,1 hPa 0,0 l/m 2 min 0 min 640 W/m 25,7 km/h (4 Bft) 95,74 %
22.04.2019 16:36 26,9 C 28,9 C 26,7 C 29 % 1003,1 hPa 0,0 l/m 2 min 0 min 635 W/m 19,3 km/h (3 Bft) 100,00 %
22.04.2019 16:38 26,9 C 28,9 C 26,7 C 29 % 1003,0 hPa 0,0 l/m 2 min 0 min 629 W/m 12,9 km/h (3 Bft) 100,00 %
22.04.2019 16:40 27,0 C 29,4 C 27,2 C 30 % 1003,0 hPa 0,0 l/m 2 min 0 min 622 W/m 16,1 km/h (3 Bft) 100,00 %
22.04.2019 16:42 27,1 C 28,9 C 27,8 C 30 % 1002,9 hPa 0,0 l/m 2 min 0 min 608 W/m 25,7 km/h (4 Bft) 97,87 %
22.04.2019 16:44 27,0 C 28,3 C 27,8 C 31 % 1002,9 hPa 0,0 l/m 2 min 0 min 594 W/m 25,7 km/h (4 Bft) 95,65 %
22.04.2019 16:46 27,0 C 28,9 C 27,8 C 30 % 1003,0 hPa 0,0 l/m 2 min 0 min 595 W/m 12,9 km/h (3 Bft) 100,00 %
22.04.2019 16:48 27,0 C 28,9 C 27,8 C 30 % 1003,0 hPa 0,0 l/m 2 min 0 min 590 W/m 16,1 km/h (3 Bft) 100,00 %
22.04.2019 16:50 27,0 C 28,9 C 27,2 C 29 % 1002,9 hPa 0,0 l/m 2 min 0 min 587 W/m 12,9 km/h (3 Bft) 100,00 %
22.04.2019 16:52 27,1 C 29,4 C 27,2 C 30 % 1002,9 hPa 0,0 l/m 2 min 0 min 578 W/m 9,7 km/h (2 Bft) 100,00 %
22.04.2019 16:54 27,1 C 29,4 C 27,2 C 30 % 1002,9 hPa 0,0 l/m 2 min 0 min 566 W/m 6,4 km/h (2 Bft) 100,00 %
22.04.2019 16:56 27,1 C 28,9 C 27,2 C 30 % 1002,8 hPa 0,0 l/m 2 min 0 min 566 W/m 22,5 km/h (4 Bft) 97,87 %
22.04.2019 16:58 27,1 C 28,3 C 27,2 C 31 % 1002,8 hPa 0,0 l/m 2 min 0 min 554 W/m 19,3 km/h (3 Bft) 100,00 %
22.04.2019 17:00 27,1 C 28,3 C 27,2 C 31 % 1002,8 hPa 0,0 l/m 2 min 0 min 550 W/m 12,9 km/h (3 Bft) 100,00 %
22.04.2019 17:02 27,2 C 28,9 C 26,7 C 31 % 1002,8 hPa 0,0 l/m 2 min 0 min 543 W/m 16,1 km/h (3 Bft) 97,87 %
22.04.2019 17:04 27,2 C 28,9 C 26,7 C 30 % 1002,7 hPa 0,0 l/m 2 min 0 min 534 W/m 9,7 km/h (2 Bft) 100,00 %
22.04.2019 17:06 27,2 C 28,9 C 26,7 C 31 % 1002,7 hPa 0,0 l/m 2 min 0 min 528 W/m 9,7 km/h (2 Bft) 100,00 %
22.04.2019 17:08 27,3 C 29,4 C 26,7 C 32 % 1002,7 hPa 0,0 l/m 2 min 0 min 522 W/m 19,3 km/h (3 Bft) 100,00 %
22.04.2019 17:10 27,3 C 29,4 C 26,7 C 33 % 1002,7 hPa 0,0 l/m 2 min 0 min 518 W/m 9,7 km/h (2 Bft) 97,87 %
22.04.2019 17:12 27,3 C 29,4 C 26,1 C 35 % 1002,7 hPa 0,0 l/m 2 min 0 min 510 W/m 9,7 km/h (2 Bft) 100,00 %
22.04.2019 17:14 27,4 C 29,4 C 26,1 C 35 % 1002,6 hPa 0,0 l/m 2 min 0 min 501 W/m 16,1 km/h (3 Bft) 97,87 %
22.04.2019 17:16 27,4 C 28,9 C 26,1 C 32 % 1002,6 hPa 0,0 l/m 2 min 0 min 501 W/m 19,3 km/h (3 Bft) 100,00 %
22.04.2019 17:18 27,4 C 28,9 C 26,1 C 31 % 1002,6 hPa 0,0 l/m 2 min 0 min 496 W/m 9,7 km/h (2 Bft) 95,74 %
22.04.2019 17:20 27,4 C 28,3 C 26,1 C 31 % 1002,6 hPa 0,0 l/m 2 min 0 min 486 W/m 9,7 km/h (2 Bft) 100,00 %
22.04.2019 17:22 27,4 C 28,3 C 25,6 C 31 % 1002,6 hPa 0,0 l/m 2 min 0 min 484 W/m 9,7 km/h (2 Bft) 100,00 %
22.04.2019 17:24 27,4 C 28,3 C 25,6 C 31 % 1002,6 hPa 0,0 l/m 2 min 0 min 483 W/m 9,7 km/h (2 Bft) 100,00 %
22.04.2019 17:26 27,3 C 28,3 C 25,6 C 31 % 1002,5 hPa 0,0 l/m 2 min 0 min 477 W/m 12,9 km/h (3 Bft) 95,74 %
22.04.2019 17:28 27,3 C 28,3 C 25,6 C 33 % 1002,4 hPa 0,0 l/m 2 min 0 min 469 W/m 16,1 km/h (3 Bft) 100,00 %
22.04.2019 17:30 27,4 C 28,3 C 26,1 C 34 % 1002,3 hPa 0,0 l/m 2 min 0 min 456 W/m 16,1 km/h (3 Bft) 100,00 %
22.04.2019 17:32 27,3 C 27,8 C 25,6 C 31 % 1002,5 hPa 0,0 l/m 2 min 0 min 459 W/m 19,3 km/h (3 Bft) 100,00 %
22.04.2019 17:34 27,2 C 27,2 C 25,6 C 30 % 1002,4 hPa 0,0 l/m 2 min 0 min 453 W/m 19,3 km/h (3 Bft) 100,00 %
22.04.2019 17:36 27,2 C 27,8 C 25,6 C 31 % 1002,4 hPa 0,0 l/m 2 min 0 min 446 W/m 9,7 km/h (2 Bft) 97,87 %
22.04.2019 17:38 27,1 C 27,8 C 25,6 C 31 % 1002,4 hPa 0,0 l/m 2 min 0 min 439 W/m 12,9 km/h (3 Bft) 100,00 %
22.04.2019 17:40 27,1 C 27,8 C 25,6 C 31 % 1002,4 hPa 0,0 l/m 2 min 0 min 438 W/m 12,9 km/h (3 Bft) 100,00 %
22.04.2019 17:42 27,1 C 27,8 C 25,0 C 32 % 1002,4 hPa 0,0 l/m 2 min 0 min 436 W/m 9,7 km/h (2 Bft) 97,87 %
22.04.2019 17:44 27,2 C 27,8 C 25,0 C 32 % 1002,4 hPa 0,0 l/m 2 min 0 min 429 W/m 12,9 km/h (3 Bft) 100,00 %
22.04.2019 17:46 27,2 C 27,8 C 25,0 C 35 % 1002,3 hPa 0,0 l/m 2 min 0 min 423 W/m 12,9 km/h (3 Bft) 100,00 %
22.04.2019 17:50 27,2 C 27,8 C 25,0 C 34 % 1002,2 hPa 0,0 l/m 4 min 0 min 406 W/m 0,0 km/h (0 Bft) 93,33 %
22.04.2019 17:52 27,2 C 27,8 C 25,0 C 33 % 1002,2 hPa 0,0 l/m 2 min 0 min 404 W/m 9,7 km/h (2 Bft) 100,00 %
22.04.2019 17:54 27,2 C 27,2 C 25,0 C 32 % 1002,3 hPa 0,0 l/m 2 min 0 min 402 W/m 16,1 km/h (3 Bft) 97,92 %
22.04.2019 17:56 27,1 C 27,2 C 25,0 C 31 % 1002,3 hPa 0,0 l/m 2 min 0 min 399 W/m 19,3 km/h (3 Bft) 97,87 %
22.04.2019 17:58 27,1 C 27,2 C 25,0 C 30 % 1002,3 hPa 0,0 l/m 2 min 0 min 391 W/m 12,9 km/h (3 Bft) 97,87 %
22.04.2019 18:00 27,0 C 27,2 C 25,0 C 31 % 1002,2 hPa 0,0 l/m 2 min 0 min 383 W/m 6,4 km/h (2 Bft) 100,00 %
22.04.2019 18:02 27,0 C 27,2 C 24,4 C 32 % 1002,2 hPa 0,0 l/m 2 min 0 min 378 W/m 9,7 km/h (2 Bft) 100,00 %
22.04.2019 18:04 27,0 C 27,2 C 24,4 C 32 % 1002,3 hPa 0,0 l/m 2 min 0 min 371 W/m 9,7 km/h (2 Bft) 100,00 %
22.04.2019 18:08 27,0 C 27,2 C 24,4 C 30 % 1002,2 hPa 0,0 l/m 4 min 0 min 363 W/m 6,4 km/h (2 Bft) 97,65 %
22.04.2019 18:10 27,0 C 26,7 C 24,4 C 31 % 1002,2 hPa 0,0 l/m 2 min 0 min 353 W/m 9,7 km/h (2 Bft) 97,96 %
22.04.2019 18:12 26,9 C 26,7 C 23,9 C 31 % 1002,2 hPa 0,0 l/m 2 min 0 min 345 W/m 12,9 km/h (3 Bft) 97,83 %
22.04.2019 18:14 26,9 C 26,7 C 23,9 C 31 % 1002,1 hPa 0,0 l/m 2 min 0 min 338 W/m 12,9 km/h (3 Bft) 97,87 %
22.04.2019 18:16 26,8 C 26,1 C 22,8 C 32 % 1002,1 hPa 0,0 l/m 2 min 0 min 329 W/m 9,7 km/h (2 Bft) 93,62 %
22.04.2019 18:18 26,7 C 26,1 C 22,2 C 33 % 1002,1 hPa 0,0 l/m 2 min 0 min 320 W/m 9,7 km/h (2 Bft) 95,74 %
22.04.2019 18:20 26,7 C 25,6 C 21,7 C 34 % 1002,1 hPa 0,0 l/m 2 min 0 min 316 W/m 12,9 km/h (3 Bft) 96,30 %
22.04.2019 18:22 26,6 C 25,6 C 21,1 C 35 % 1002,0 hPa 0,0 l/m 2 min 0 min 312 W/m 9,7 km/h (2 Bft) 95,74 %
22.04.2019 18:24 26,5 C 25,0 C 21,1 C 36 % 1002,0 hPa 0,0 l/m 2 min 0 min 302 W/m 19,3 km/h (3 Bft) 97,87 %
22.04.2019 18:26 26,3 C 25,0 C 21,1 C 36 % 1002,1 hPa 0,0 l/m 2 min 0 min 289 W/m 16,1 km/h (3 Bft) 97,83 %
22.04.2019 18:28 26,2 C 24,4 C 21,1 C 37 % 1002,0 hPa 0,0 l/m 2 min 0 min 286 W/m 12,9 km/h (3 Bft) 93,62 %
22.04.2019 18:30 26,1 C 24,4 C 20,6 C 37 % 1002,0 hPa 0,0 l/m 2 min 0 min 282 W/m 9,7 km/h (2 Bft) 91,49 %
22.04.2019 18:32 25,9 C 24,4 C 20,0 C 37 % 1002,0 hPa 0,0 l/m 2 min 0 min 272 W/m 16,1 km/h (3 Bft) 97,37 %
22.04.2019 18:34 25,7 C 24,4 C 20,0 C 38 % 1002,1 hPa 0,0 l/m 2 min 0 min 260 W/m 6,4 km/h (2 Bft) 91,49 %
22.04.2019 18:36 25,6 C 23,9 C 20,0 C 38 % 1001,9 hPa 0,0 l/m 2 min 0 min 255 W/m 6,4 km/h (2 Bft) 96,55 %
22.04.2019 18:38 25,5 C 23,9 C 20,0 C 38 % 1002,1 hPa 0,0 l/m 2 min 0 min 253 W/m 12,9 km/h (3 Bft) 93,62 %
22.04.2019 18:40 25,3 C 23,9 C 20,0 C 37 % 1002,0 hPa 0,0 l/m 2 min 0 min 240 W/m 16,1 km/h (3 Bft) 91,43 %
22.04.2019 18:42 25,2 C 23,3 C 20,6 C 37 % 1001,9 hPa 0,0 l/m 2 min 0 min 203 W/m 12,9 km/h (3 Bft) 95,74 %
22.04.2019 18:44 25,1 C 23,3 C 20,6 C 37 % 1001,9 hPa 0,0 l/m 0 min 0 min 109 W/m 22,5 km/h (4 Bft) 91,49 %
22.04.2019 18:46 24,9 C 23,3 C 20,0 C 37 % 1001,9 hPa 0,0 l/m 0 min 0 min 80 W/m 12,9 km/h (3 Bft) 91,49 %
22.04.2019 18:48 24,8 C 23,3 C 20,0 C 38 % 1001,9 hPa 0,0 l/m 0 min 0 min 76 W/m 16,1 km/h (3 Bft) 93,62 %
22.04.2019 18:50 24,7 C 22,8 C 20,0 C 38 % 1002,0 hPa 0,0 l/m 0 min 0 min 73 W/m 12,9 km/h (3 Bft) 95,74 %
22.04.2019 18:52 24,5 C 23,3 C 20,0 C 37 % 1001,8 hPa 0,0 l/m 0 min 0 min 72 W/m 9,7 km/h (2 Bft) 93,48 %
22.04.2019 18:54 24,4 C 23,3 C 20,6 C 38 % 1001,8 hPa 0,0 l/m 0 min 0 min 70 W/m 12,9 km/h (3 Bft) 95,74 %
22.04.2019 18:56 24,3 C 23,3 C 20,6 C 39 % 1001,8 hPa 0,0 l/m 0 min 0 min 70 W/m 12,9 km/h (3 Bft) 93,62 %
22.04.2019 18:58 24,2 C 23,3 C 20,6 C 38 % 1001,8 hPa 0,0 l/m 0 min 0 min 70 W/m 16,1 km/h (3 Bft) 95,74 %
22.04.2019 19:00 24,2 C 23,3 C 20,6 C 38 % 1001,7 hPa 0,0 l/m 0 min 0 min 69 W/m 12,9 km/h (3 Bft) 95,74 %
22.04.2019 19:02 24,1 C 22,8 C 20,6 C 37 % 1001,7 hPa 0,0 l/m 0 min 0 min 69 W/m 16,1 km/h (3 Bft) 95,74 %
22.04.2019 19:04 24,1 C 22,8 C 20,0 C 40 % 1001,7 hPa 0,0 l/m 0 min 0 min 67 W/m 9,7 km/h (2 Bft) 97,83 %
22.04.2019 19:06 24,0 C 22,8 C 20,0 C 39 % 1001,8 hPa 0,0 l/m 0 min 0 min 67 W/m 12,9 km/h (3 Bft) 93,22 %
22.04.2019 19:08 23,9 C 22,8 C 20,0 C 39 % 1001,7 hPa 0,0 l/m 0 min 0 min 67 W/m 12,9 km/h (3 Bft) 97,14 %
22.04.2019 19:10 23,8 C 22,8 C 20,6 C 39 % 1001,7 hPa 0,0 l/m 0 min 0 min 67 W/m 9,7 km/h (2 Bft) 91,49 %
22.04.2019 19:12 23,8 C 22,8 C 20,0 C 40 % 1001,8 hPa 0,0 l/m 0 min 0 min 66 W/m 9,7 km/h (2 Bft) 95,74 %
22.04.2019 19:14 23,7 C 22,2 C 20,0 C 40 % 1001,8 hPa 0,0 l/m 0 min 0 min 65 W/m 16,1 km/h (3 Bft) 95,65 %
22.04.2019 19:16 23,6 C 22,2 C 20,0 C 41 % 1001,8 hPa 0,0 l/m 0 min 0 min 65 W/m 12,9 km/h (3 Bft) 95,74 %
22.04.2019 19:18 23,5 C 22,2 C 20,0 C 40 % 1001,8 hPa 0,0 l/m 0 min 0 min 63 W/m 16,1 km/h (3 Bft) 95,74 %
22.04.2019 19:20 23,4 C 21,7 C 20,0 C 40 % 1001,8 hPa 0,0 l/m 0 min 0 min 62 W/m 16,1 km/h (3 Bft) 91,49 %
22.04.2019 19:22 23,3 C 21,7 C 19,4 C 41 % 1001,8 hPa 0,0 l/m 0 min 0 min 60 W/m 16,1 km/h (3 Bft) 97,87 %
22.04.2019 19:24 23,2 C 21,7 C 19,4 C 41 % 1001,8 hPa 0,0 l/m 0 min 0 min 58 W/m 12,9 km/h (3 Bft) 97,87 %
22.04.2019 19:26 23,1 C 21,7 C 19,4 C 42 % 1001,8 hPa 0,0 l/m 0 min 0 min 55 W/m 16,1 km/h (3 Bft) 95,65 %
22.04.2019 19:28 23,0 C 21,7 C 18,9 C 42 % 1001,8 hPa 0,0 l/m 0 min 0 min 54 W/m 9,7 km/h (2 Bft) 95,74 %
22.04.2019 19:30 22,9 C 21,1 C 18,9 C 42 % 1001,8 hPa 0,0 l/m 0 min 0 min 53 W/m 12,9 km/h (3 Bft) 95,74 %
22.04.2019 19:32 22,8 C 21,1 C 18,9 C 42 % 1001,8 hPa 0,0 l/m 0 min 0 min 51 W/m 16,1 km/h (3 Bft) 97,87 %
22.04.2019 19:34 22,7 C 21,1 C 18,9 C 42 % 1001,8 hPa 0,0 l/m 0 min 0 min 50 W/m 12,9 km/h (3 Bft) 95,74 %
22.04.2019 19:36 22,7 C 21,1 C 18,3 C 44 % 1001,8 hPa 0,0 l/m 0 min 0 min 49 W/m 9,7 km/h (2 Bft) 94,83 %
22.04.2019 19:38 22,6 C 20,6 C 18,3 C 44 % 1001,7 hPa 0,0 l/m 0 min 0 min 47 W/m 9,7 km/h (2 Bft) 97,14 %
22.04.2019 19:40 22,5 C 20,6 C 18,3 C 44 % 1001,8 hPa 0,0 l/m 0 min 0 min 46 W/m 6,4 km/h (2 Bft) 95,74 %
22.04.2019 19:42 22,4 C 20,6 C 17,8 C 43 % 1001,7 hPa 0,0 l/m 0 min 0 min 45 W/m 6,4 km/h (2 Bft) 100,00 %
22.04.2019 19:44 22,3 C 20,6 C 18,3 C 42 % 1001,8 hPa 0,0 l/m 0 min 0 min 44 W/m 16,1 km/h (3 Bft) 97,87 %
22.04.2019 19:46 22,3 C 20,6 C 17,8 C 43 % 1001,7 hPa 0,0 l/m 0 min 0 min 43 W/m 9,7 km/h (2 Bft) 100,00 %
22.04.2019 19:48 22,2 C 20,6 C 18,3 C 43 % 1001,8 hPa 0,0 l/m 0 min 0 min 42 W/m 12,9 km/h (3 Bft) 100,00 %
22.04.2019 19:50 22,2 C 20,6 C 17,8 C 44 % 1001,7 hPa 0,0 l/m 0 min 0 min 40 W/m 9,7 km/h (2 Bft) 100,00 %
22.04.2019 19:52 22,1 C 20,0 C 17,8 C 45 % 1001,8 hPa 0,0 l/m 0 min 0 min 39 W/m 9,7 km/h (2 Bft) 100,00 %
22.04.2019 19:54 21,9 C 20,0 C 17,8 C 43 % 1001,7 hPa 0,0 l/m 0 min 0 min 39 W/m 19,3 km/h (3 Bft) 100,00 %
22.04.2019 19:56 21,9 C 20,0 C 17,8 C 44 % 1001,8 hPa 0,0 l/m 0 min 0 min 38 W/m 12,9 km/h (3 Bft) 100,00 %
22.04.2019 19:58 21,8 C 20,0 C 17,8 C 45 % 1001,7 hPa 0,0 l/m 0 min 0 min 37 W/m 12,9 km/h (3 Bft) 100,00 %
22.04.2019 20:00 21,7 C 20,0 C 17,8 C 44 % 1001,8 hPa 0,0 l/m 0 min 0 min 35 W/m 12,9 km/h (3 Bft) 100,00 %
22.04.2019 20:02 21,6 C 20,0 C 17,8 C 43 % 1001,8 hPa 0,0 l/m 0 min 0 min 33 W/m 12,9 km/h (3 Bft) 100,00 %
22.04.2019 20:04 21,6 C 20,0 C 17,8 C 44 % 1001,7 hPa 0,0 l/m 0 min 0 min 32 W/m 12,9 km/h (3 Bft) 100,00 %
22.04.2019 20:06 21,4 C 20,0 C 17,8 C 43 % 1001,7 hPa 0,0 l/m 0 min 0 min 31 W/m 16,1 km/h (3 Bft) 100,00 %
22.04.2019 20:08 21,4 C 19,4 C 17,8 C 44 % 1001,7 hPa 0,0 l/m 0 min 0 min 29 W/m 9,7 km/h (2 Bft) 100,00 %
22.04.2019 20:10 21,3 C 19,4 C 17,8 C 44 % 1001,8 hPa 0,0 l/m 0 min 0 min 28 W/m 12,9 km/h (3 Bft) 100,00 %
22.04.2019 20:12 21,2 C 19,4 C 17,2 C 44 % 1001,8 hPa 0,0 l/m 0 min 0 min 26 W/m 9,7 km/h (2 Bft) 100,00 %
22.04.2019 20:14 21,1 C 19,4 C 17,2 C 43 % 1001,8 hPa 0,0 l/m 0 min 0 min 25 W/m 9,7 km/h (2 Bft) 100,00 %
22.04.2019 20:16 21,1 C 19,4 C 17,8 C 44 % 1001,8 hPa 0,0 l/m 0 min 0 min 23 W/m 19,3 km/h (3 Bft) 100,00 %
22.04.2019 20:18 21,0 C 19,4 C 17,8 C 43 % 1001,9 hPa 0,0 l/m 0 min 0 min 21 W/m 12,9 km/h (3 Bft) 100,00 %
22.04.2019 20:20 20,9 C 19,4 C 17,8 C 42 % 1001,9 hPa 0,0 l/m 0 min 0 min 19 W/m 9,7 km/h (2 Bft) 100,00 %
22.04.2019 20:22 20,9 C 19,4 C 17,8 C 42 % 1002,0 hPa 0,0 l/m 0 min 0 min 18 W/m 16,1 km/h (3 Bft) 100,00 %
22.04.2019 20:24 20,8 C 19,4 C 17,8 C 42 % 1002,0 hPa 0,0 l/m 0 min 0 min 15 W/m 12,9 km/h (3 Bft) 100,00 %
22.04.2019 20:26 20,8 C 19,4 C 17,8 C 43 % 1001,9 hPa 0,0 l/m 0 min 0 min 13 W/m 12,9 km/h (3 Bft) 100,00 %
22.04.2019 20:28 20,7 C 18,9 C 17,2 C 44 % 1002,0 hPa 0,0 l/m 0 min 0 min 12 W/m 9,7 km/h (2 Bft) 100,00 %
22.04.2019 20:30 20,7 C 18,9 C 17,8 C 43 % 1002,0 hPa 0,0 l/m 0 min 0 min 11 W/m 12,9 km/h (3 Bft) 100,00 %
22.04.2019 20:32 20,6 C 18,9 C 17,2 C 43 % 1002,0 hPa 0,0 l/m 0 min 0 min 9 W/m 9,7 km/h (2 Bft) 100,00 %
22.04.2019 20:34 20,6 C 18,9 C 17,2 C 43 % 1002,0 hPa 0,0 l/m 0 min 0 min 7 W/m 9,7 km/h (2 Bft) 97,83 %
22.04.2019 20:36 20,5 C 18,9 C 17,2 C 44 % 1002,0 hPa 0,0 l/m 0 min 0 min 5 W/m 9,7 km/h (2 Bft) 100,00 %
22.04.2019 20:38 20,4 C 18,9 C 17,2 C 44 % 1002,1 hPa 0,0 l/m 0 min 0 min 2 W/m 9,7 km/h (2 Bft) 97,87 %
22.04.2019 20:40 20,3 C 18,3 C 17,2 C 44 % 1002,0 hPa 0,0 l/m 0 min 0 min 0 W/m 9,7 km/h (2 Bft) 100,00 %
22.04.2019 20:42 20,3 C 18,3 C 16,7 C 44 % 1002,1 hPa 0,0 l/m 0 min 0 min 0 W/m 9,7 km/h (2 Bft) 97,37 %
22.04.2019 20:44 20,2 C 18,3 C 16,7 C 43 % 1002,1 hPa 0,0 l/m 0 min 0 min 0 W/m 9,7 km/h (2 Bft) 97,87 %
22.04.2019 20:46 20,2 C 18,3 C 16,7 C 43 % 1002,0 hPa 0,0 l/m 0 min 0 min 0 W/m 9,7 km/h (2 Bft) 97,92 %
22.04.2019 20:48 20,1 C 18,3 C 16,7 C 44 % 1002,1 hPa 0,0 l/m 0 min 0 min 0 W/m 6,4 km/h (2 Bft) 97,87 %
22.04.2019 20:50 20,1 C 17,8 C 16,7 C 44 % 1002,1 hPa 0,0 l/m 0 min 0 min 0 W/m 9,7 km/h (2 Bft) 97,87 %
22.04.2019 20:52 20,0 C 17,8 C 16,1 C 45 % 1002,1 hPa 0,0 l/m 0 min 0 min 0 W/m 9,7 km/h (2 Bft) 96,30 %
22.04.2019 20:54 19,9 C 17,8 C 16,1 C 45 % 1002,1 hPa 0,0 l/m 0 min 0 min 0 W/m 9,7 km/h (2 Bft) 95,74 %
22.04.2019 20:56 19,8 C 17,8 C 16,1 C 46 % 1002,1 hPa 0,0 l/m 0 min 0 min 0 W/m 9,7 km/h (2 Bft) 97,37 %
22.04.2019 20:58 19,7 C 17,8 C 16,1 C 46 % 1002,1 hPa 0,0 l/m 0 min 0 min 0 W/m 9,7 km/h (2 Bft) 97,87 %
22.04.2019 21:00 19,7 C 17,8 C 16,1 C 45 % 1002,1 hPa 0,0 l/m 0 min 0 min 0 W/m 9,7 km/h (2 Bft) 97,92 %
22.04.2019 21:02 19,6 C 17,8 C 16,1 C 45 % 1002,1 hPa 0,0 l/m 0 min 0 min 0 W/m 9,7 km/h (2 Bft) 97,87 %
22.04.2019 21:04 19,5 C 17,8 C 16,1 C 46 % 1002,1 hPa 0,0 l/m 0 min 0 min 0 W/m 6,4 km/h (2 Bft) 97,87 %
22.04.2019 21:06 19,4 C 17,2 C 16,1 C 46 % 1002,2 hPa 0,0 l/m 0 min 0 min 0 W/m 9,7 km/h (2 Bft) 95,74 %
22.04.2019 21:08 19,3 C 17,2 C 16,1 C 45 % 1002,1 hPa 0,0 l/m 0 min 0 min 0 W/m 9,7 km/h (2 Bft) 97,83 %
22.04.2019 21:10 19,2 C 17,2 C 16,1 C 47 % 1002,1 hPa 0,0 l/m 0 min 0 min 0 W/m 9,7 km/h (2 Bft) 95,74 %
22.04.2019 21:12 19,2 C 17,2 C 16,1 C 46 % 1002,2 hPa 0,0 l/m 0 min 0 min 0 W/m 9,7 km/h (2 Bft) 97,87 %
22.04.2019 21:14 19,1 C 17,2 C 16,1 C 46 % 1002,2 hPa 0,0 l/m 0 min 0 min 0 W/m 9,7 km/h (2 Bft) 96,30 %
22.04.2019 21:16 19,1 C 17,2 C 15,6 C 46 % 1002,2 hPa 0,0 l/m 0 min 0 min 0 W/m 9,7 km/h (2 Bft) 95,74 %
22.04.2019 21:18 18,9 C 16,7 C 15,6 C 47 % 1002,1 hPa 0,0 l/m 0 min 0 min 0 W/m 9,7 km/h (2 Bft) 97,37 %
22.04.2019 21:20 18,9 C 16,7 C 15,6 C 47 % 1002,1 hPa 0,0 l/m 0 min 0 min 0 W/m 6,4 km/h (2 Bft) 97,92 %
22.04.2019 21:22 18,8 C 16,7 C 15,6 C 47 % 1002,1 hPa 0,0 l/m 0 min 0 min 0 W/m 9,7 km/h (2 Bft) 97,87 %
22.04.2019 21:24 18,7 C 16,7 C 15,6 C 47 % 1002,2 hPa 0,0 l/m 0 min 0 min 0 W/m 9,7 km/h (2 Bft) 95,74 %
22.04.2019 21:26 18,7 C 16,7 C 15,6 C 47 % 1002,2 hPa 0,0 l/m 0 min 0 min 0 W/m 12,9 km/h (3 Bft) 96,30 %
22.04.2019 21:28 18,6 C 16,7 C 15,6 C 48 % 1002,2 hPa 0,0 l/m 0 min 0 min 0 W/m 6,4 km/h (2 Bft) 97,87 %
22.04.2019 21:30 18,6 C 16,7 C 15,6 C 48 % 1002,2 hPa 0,0 l/m 0 min 0 min 0 W/m 9,7 km/h (2 Bft) 94,29 %
22.04.2019 21:32 18,5 C 16,7 C 15,6 C 48 % 1002,2 hPa 0,0 l/m 0 min 0 min 0 W/m 6,4 km/h (2 Bft) 96,08 %
22.04.2019 21:34 18,4 C 16,7 C 15,6 C 49 % 1002,2 hPa 0,0 l/m 0 min 0 min 0 W/m 9,7 km/h (2 Bft) 97,87 %
22.04.2019 21:36 18,4 C 16,7 C 15,6 C 49 % 1002,3 hPa 0,0 l/m 0 min 0 min 0 W/m 6,4 km/h (2 Bft) 97,87 %
22.04.2019 21:38 18,3 C 16,7 C 15,0 C 49 % 1002,3 hPa 0,0 l/m 0 min 0 min 0 W/m 6,4 km/h (2 Bft) 97,87 %
22.04.2019 21:40 18,2 C 16,1 C 15,0 C 49 % 1002,3 hPa 0,0 l/m 0 min 0 min 0 W/m 9,7 km/h (2 Bft) 97,87 %
22.04.2019 21:42 18,2 C 16,1 C 15,0 C 49 % 1002,3 hPa 0,0 l/m 0 min 0 min 0 W/m 6,4 km/h (2 Bft) 93,62 %
22.04.2019 21:44 18,1 C 16,1 C 15,0 C 50 % 1002,3 hPa 0,0 l/m 0 min 0 min 0 W/m 12,9 km/h (3 Bft) 97,83 %
22.04.2019 21:46 18,1 C 16,1 C 15,0 C 50 % 1002,3 hPa 0,0 l/m 0 min 0 min 0 W/m 6,4 km/h (2 Bft) 97,87 %
22.04.2019 21:48 18,1 C 16,1 C 15,0 C 50 % 1002,4 hPa 0,0 l/m 0 min 0 min 0 W/m 6,4 km/h (2 Bft) 97,87 %
22.04.2019 21:50 17,9 C 16,1 C 15,0 C 50 % 1002,3 hPa 0,0 l/m 0 min 0 min 0 W/m 9,7 km/h (2 Bft) 97,87 %
22.04.2019 21:52 17,9 C 16,1 C 15,0 C 50 % 1002,3 hPa 0,0 l/m 0 min 0 min 0 W/m 0,0 km/h (0 Bft) 95,74 %
22.04.2019 21:54 17,8 C 15,6 C 15,0 C 50 % 1002,3 hPa 0,0 l/m 0 min 0 min 0 W/m 6,4 km/h (2 Bft) 95,65 %
22.04.2019 21:56 17,8 C 15,6 C 14,4 C 51 % 1002,3 hPa 0,0 l/m 0 min 0 min 0 W/m 6,4 km/h (2 Bft) 95,74 %
22.04.2019 21:58 17,7 C 15,6 C 14,4 C 50 % 1002,3 hPa 0,0 l/m 0 min 0 min 0 W/m 6,4 km/h (2 Bft) 95,74 %
22.04.2019 22:00 17,6 C 15,6 C 14,4 C 51 % 1002,4 hPa 0,0 l/m 0 min 0 min 0 W/m 6,4 km/h (2 Bft) 97,87 %
22.04.2019 22:02 17,6 C 15,6 C 14,4 C 52 % 1002,4 hPa 0,0 l/m 0 min 0 min 0 W/m 6,4 km/h (2 Bft) 85,11 %
22.04.2019 22:04 17,4 C 15,6 C 14,4 C 51 % 1002,3 hPa 0,0 l/m 0 min 0 min 0 W/m 9,7 km/h (2 Bft) 95,74 %
22.04.2019 22:06 17,4 C 15,6 C 14,4 C 52 % 1002,3 hPa 0,0 l/m 0 min 0 min 0 W/m 6,4 km/h (2 Bft) 95,65 %
22.04.2019 22:08 17,3 C 15,6 C 14,4 C 51 % 1002,3 hPa 0,0 l/m 0 min 0 min 0 W/m 6,4 km/h (2 Bft) 95,74 %
22.04.2019 22:10 17,3 C 15,6 C 14,4 C 52 % 1002,2 hPa 0,0 l/m 0 min 0 min 0 W/m 6,4 km/h (2 Bft) 95,74 %
22.04.2019 22:12 17,2 C 15,6 C 14,4 C 52 % 1002,3 hPa 0,0 l/m 0 min 0 min 0 W/m 6,4 km/h (2 Bft) 95,74 %
22.04.2019 22:14 17,2 C 15,0 C 13,9 C 52 % 1002,2 hPa 0,0 l/m 0 min 0 min 0 W/m 6,4 km/h (2 Bft) 97,87 %
22.04.2019 22:16 17,1 C 15,0 C 13,9 C 52 % 1002,3 hPa 0,0 l/m 0 min 0 min 0 W/m 6,4 km/h (2 Bft) 97,87 %
22.04.2019 22:18 17,1 C 15,0 C 13,9 C 52 % 1002,3 hPa 0,0 l/m 0 min 0 min 0 W/m 3,2 km/h (1 Bft) 97,83 %
22.04.2019 22:20 16,9 C 15,0 C 13,9 C 53 % 1002,3 hPa 0,0 l/m 0 min 0 min 0 W/m 6,4 km/h (2 Bft) 97,87 %
22.04.2019 22:22 16,9 C 15,0 C 13,9 C 52 % 1002,3 hPa 0,0 l/m 0 min 0 min 0 W/m 6,4 km/h (2 Bft) 97,87 %
22.04.2019 22:24 16,8 C 15,0 C 13,9 C 52 % 1002,3 hPa 0,0 l/m 0 min 0 min 0 W/m 6,4 km/h (2 Bft) 97,87 %
22.04.2019 22:26 16,8 C 14,4 C 13,9 C 53 % 1002,3 hPa 0,0 l/m 0 min 0 min 0 W/m 6,4 km/h (2 Bft) 97,87 %
22.04.2019 22:28 16,7 C 14,4 C 13,3 C 53 % 1002,3 hPa 0,0 l/m 0 min 0 min 0 W/m 6,4 km/h (2 Bft) 97,87 %
22.04.2019 22:30 16,6 C 14,4 C 13,3 C 54 % 1002,3 hPa 0,0 l/m 0 min 0 min 0 W/m 6,4 km/h (2 Bft) 95,65 %
22.04.2019 22:32 16,6 C 14,4 C 13,3 C 53 % 1002,3 hPa 0,0 l/m 0 min 0 min 0 W/m 6,4 km/h (2 Bft) 96,23 %
22.04.2019 22:34 16,5 C 14,4 C 13,3 C 53 % 1002,4 hPa 0,0 l/m 0 min 0 min 0 W/m 6,4 km/h (2 Bft) 93,62 %
22.04.2019 22:36 16,4 C 14,4 C 13,3 C 54 % 1002,4 hPa 0,0 l/m 0 min 0 min 0 W/m 6,4 km/h (2 Bft) 93,62 %
22.04.2019 22:38 16,4 C 14,4 C 13,3 C 54 % 1002,3 hPa 0,0 l/m 0 min 0 min 0 W/m 6,4 km/h (2 Bft) 97,87 %
22.04.2019 22:40 16,3 C 14,4 C 13,3 C 53 % 1002,3 hPa 0,0 l/m 0 min 0 min 0 W/m 3,2 km/h (1 Bft) 97,87 %
22.04.2019 22:42 16,2 C 14,4 C 13,3 C 54 % 1002,3 hPa 0,0 l/m 0 min 0 min 0 W/m 3,2 km/h (1 Bft) 97,87 %
22.04.2019 22:44 16,2 C 14,4 C 13,3 C 54 % 1002,3 hPa 0,0 l/m 0 min 0 min 0 W/m 3,2 km/h (1 Bft) 97,83 %
22.04.2019 22:46 16,1 C 14,4 C 13,3 C 54 % 1002,3 hPa 0,0 l/m 0 min 0 min 0 W/m 6,4 km/h (2 Bft) 97,87 %
22.04.2019 22:48 16,1 C 13,9 C 13,3 C 54 % 1002,3 hPa 0,0 l/m 0 min 0 min 0 W/m 3,2 km/h (1 Bft) 97,87 %
22.04.2019 22:50 16,0 C 13,9 C 12,8 C 54 % 1002,4 hPa 0,0 l/m 0 min 0 min 0 W/m 6,4 km/h (2 Bft) 97,87 %
22.04.2019 22:52 15,9 C 13,9 C 12,8 C 54 % 1002,4 hPa 0,0 l/m 0 min 0 min 0 W/m 3,2 km/h (1 Bft) 97,87 %
22.04.2019 22:54 15,9 C 13,9 C 12,8 C 54 % 1002,4 hPa 0,0 l/m 0 min 0 min 0 W/m 6,4 km/h (2 Bft) 97,87 %
22.04.2019 22:56 15,8 C 13,9 C 12,8 C 54 % 1002,4 hPa 0,0 l/m 0 min 0 min 0 W/m 6,4 km/h (2 Bft) 97,83 %
22.04.2019 22:58 15,8 C 13,3 C 12,8 C 54 % 1002,3 hPa 0,0 l/m 0 min 0 min 0 W/m 6,4 km/h (2 Bft) 100,00 %
22.04.2019 23:00 15,7 C 13,3 C 12,8 C 55 % 1002,4 hPa 0,0 l/m 0 min 0 min 0 W/m 6,4 km/h (2 Bft) 97,87 %
22.04.2019 23:02 15,7 C 13,9 C 12,8 C 55 % 1002,3 hPa 0,0 l/m 0 min 0 min 0 W/m 6,4 km/h (2 Bft) 97,87 %
22.04.2019 23:04 15,6 C 13,9 C 12,8 C 55 % 1002,3 hPa 0,0 l/m 0 min 0 min 0 W/m 6,4 km/h (2 Bft) 100,00 %
22.04.2019 23:06 15,6 C 13,9 C 12,8 C 55 % 1002,4 hPa 0,0 l/m 0 min 0 min 0 W/m 6,4 km/h (2 Bft) 100,00 %
22.04.2019 23:08 15,5 C 13,9 C 12,8 C 54 % 1002,4 hPa 0,0 l/m 0 min 0 min 0 W/m 6,4 km/h (2 Bft) 100,00 %
22.04.2019 23:10 15,4 C 14,4 C 12,8 C 53 % 1002,4 hPa 0,0 l/m 0 min 0 min 0 W/m 6,4 km/h (2 Bft) 100,00 %
22.04.2019 23:12 15,4 C 13,9 C 12,8 C 53 % 1002,4 hPa 0,0 l/m 0 min 0 min 0 W/m 6,4 km/h (2 Bft) 97,87 %
22.04.2019 23:14 15,3 C 14,4 C 12,8 C 53 % 1002,3 hPa 0,0 l/m 0 min 0 min 0 W/m 6,4 km/h (2 Bft) 100,00 %
22.04.2019 23:16 15,3 C 14,4 C 12,8 C 53 % 1002,3 hPa 0,0 l/m 0 min 0 min 0 W/m 6,4 km/h (2 Bft) 100,00 %
22.04.2019 23:18 15,3 C 14,4 C 12,8 C 53 % 1002,3 hPa 0,0 l/m 0 min 0 min 0 W/m 6,4 km/h (2 Bft) 100,00 %
22.04.2019 23:20 15,3 C 14,4 C 12,8 C 53 % 1002,3 hPa 0,0 l/m 0 min 0 min 0 W/m 6,4 km/h (2 Bft) 95,74 %
22.04.2019 23:22 15,2 C 14,4 C 12,8 C 52 % 1002,3 hPa 0,0 l/m 0 min 0 min 0 W/m 9,7 km/h (2 Bft) 97,87 %
22.04.2019 23:24 15,2 C 14,4 C 13,3 C 52 % 1002,3 hPa 0,0 l/m 0 min 0 min 0 W/m 9,7 km/h (2 Bft) 100,00 %
22.04.2019 23:26 15,2 C 14,4 C 13,3 C 51 % 1002,3 hPa 0,0 l/m 0 min 0 min 0 W/m 9,7 km/h (2 Bft) 97,87 %
22.04.2019 23:28 15,2 C 14,4 C 13,3 C 52 % 1002,3 hPa 0,0 l/m 0 min 0 min 0 W/m 9,7 km/h (2 Bft) 100,00 %
22.04.2019 23:30 15,2 C 15,0 C 13,3 C 51 % 1002,3 hPa 0,0 l/m 0 min 0 min 0 W/m 9,7 km/h (2 Bft) 97,83 %
22.04.2019 23:32 15,2 C 15,0 C 13,3 C 50 % 1002,2 hPa 0,0 l/m 0 min 0 min 0 W/m 9,7 km/h (2 Bft) 97,87 %
22.04.2019 23:34 15,3 C 15,0 C 13,3 C 50 % 1002,3 hPa 0,0 l/m 0 min 0 min 0 W/m 12,9 km/h (3 Bft) 95,74 %
22.04.2019 23:36 15,3 C 15,0 C 13,3 C 50 % 1002,2 hPa 0,0 l/m 0 min 0 min 0 W/m 9,7 km/h (2 Bft) 97,87 %
22.04.2019 23:38 15,4 C 14,4 C 13,3 C 50 % 1002,2 hPa 0,0 l/m 0 min 0 min 0 W/m 9,7 km/h (2 Bft) 97,87 %
22.04.2019 23:40 15,4 C 14,4 C 13,3 C 51 % 1002,3 hPa 0,0 l/m 0 min 0 min 0 W/m 9,7 km/h (2 Bft) 97,87 %
22.04.2019 23:42 15,4 C 14,4 C 12,8 C 50 % 1002,2 hPa 0,0 l/m 0 min 0 min 0 W/m 9,7 km/h (2 Bft) 95,65 %
22.04.2019 23:44 15,4 C 13,9 C 12,8 C 51 % 1002,2 hPa 0,0 l/m 0 min 0 min 0 W/m 6,4 km/h (2 Bft) 93,62 %
22.04.2019 23:46 15,4 C 13,9 C 12,8 C 51 % 1002,1 hPa 0,0 l/m 0 min 0 min 0 W/m 3,2 km/h (1 Bft) 97,87 %
22.04.2019 23:48 15,3 C 13,3 C 12,8 C 51 % 1002,1 hPa 0,0 l/m 0 min 0 min 0 W/m 6,4 km/h (2 Bft) 93,62 %
22.04.2019 23:50 15,3 C 13,3 C 12,2 C 51 % 1002,1 hPa 0,0 l/m 0 min 0 min 0 W/m 3,2 km/h (1 Bft) 95,74 %
22.04.2019 23:52 15,3 C 13,3 C 12,2 C 51 % 1002,1 hPa 0,0 l/m 0 min 0 min 0 W/m 6,4 km/h (2 Bft) 95,74 %
22.04.2019 23:54 15,2 C 13,3 C 12,2 C 51 % 1002,1 hPa 0,0 l/m 0 min 0 min 0 W/m 9,7 km/h (2 Bft) 95,65 %
22.04.2019 23:56 15,2 C 13,3 C 12,2 C 52 % 1002,1 hPa 0,0 l/m 0 min 0 min 0 W/m 6,4 km/h (2 Bft) 95,74 %
22.04.2019 23:58 15,1 C 12,8 C 12,2 C 52 % 1002,1 hPa 0,0 l/m 0 min 0 min 0 W/m 3,2 km/h (1 Bft) 97,87 %
_ Min-Zeit 06:56 05:26 05:40 16:14 19:00 - - - - 00:00 11:26
Minimum _ 7,3 C 6,1 C 5,6 C 28 % 1001,7 hPa - - - - 0,0 km/h (0 Bft) 74,47 %
_ Max-Zeit 17:14 15:16 14:18 08:10 00:00 00:00 12:08 00:00 13:32 12:42 00:00
Maximum _ 27,4 C 31,1 C 32,8 C 90 % 1012,2 hPa 0,0 l/m 4 min 0 min 863 W/m 45,1 km/h
O (6 Bft)
100,00 %
Durchschnitt _ 17,8 C 18,3 C 17,4 C 53 % 1006,7 hPa #0,0 l/m #8:28 h #0 min. 421 W/m 9,6 km/h (2 Bft) 97,00 %
© 2019 W. Hausmann